KAR3548 VVCR-UUEE

Flight info

Callsign KAR3548
Flight time 10h 3m
Altitude 30000
Route BANKE W15 LKH DCT MULAD/N0499F300 DCT UXARO DCT TUPGO M633 OLTUM DCT BKK DCT BETNO/N0506F320 N895 PTN P646 BBN R460 LKN M890 JAL/N0499F340 M890 SULOM A466 DI M881 LAJAK L509 TAPIS M875 AMDAR/K0904F340 M875 ODIDI/K0893F360 M875 MILSO M161 GERLI DCT URL DCT ARISA L736 OLOPI
Aircraft B772/H-SDE2E3FGHIJ5LORVWXY/LB1D1

Departure

Time 2026-05-06 21:52
Airport Cam Ranh International Airport / Cam Ranh Air Base (VVCR)

Arrival

Time 2026-05-07 07:56
Airport Sheremetyevo International Airport (UUEE)
Time Latitude Longitude Altitude Speed Heading
2026-05-06 21:03 12.01207 109.21837 64 ft 0 kts 289°
2026-05-06 21:38 12.01205 109.21843 64 ft 2 kts 290°
2026-05-06 21:38 12.01200 109.21858 64 ft 2 kts 289°
2026-05-06 21:38 12.01195 109.21872 65 ft 2 kts 289°
2026-05-06 21:38 12.01190 109.21886 65 ft 2 kts 289°
2026-05-06 21:39 12.01184 109.21901 65 ft 2 kts 310°
2026-05-06 21:39 12.01173 109.21911 66 ft 2 kts 334°
2026-05-06 21:39 12.01158 109.21915 67 ft 2 kts 356°
2026-05-06 21:39 12.01143 109.21914 67 ft 2 kts 19°
2026-05-06 21:40 12.01129 109.21909 67 ft 2 kts 21°
2026-05-06 21:40 12.01115 109.21903 67 ft 2 kts 18°
2026-05-06 21:40 12.01107 109.21900 67 ft 0 kts 18°
2026-05-06 21:44 12.01112 109.21903 67 ft 2 kts 18°
2026-05-06 21:44 12.01145 109.21913 67 ft 7 kts 18°
2026-05-06 21:44 12.01212 109.21944 65 ft 13 kts 38°
2026-05-06 21:45 12.01222 109.22044 66 ft 16 kts 107°
2026-05-06 21:45 12.01174 109.22150 63 ft 16 kts 144°
2026-05-06 21:45 12.01067 109.22134 63 ft 16 kts 199°
2026-05-06 21:45 12.00950 109.22093 62 ft 19 kts 200°
2026-05-06 21:46 12.00810 109.22044 61 ft 22 kts 197°
2026-05-06 21:46 12.00652 109.21991 59 ft 25 kts 199°
2026-05-06 21:46 12.00480 109.21931 60 ft 26 kts 198°
2026-05-06 21:46 12.00308 109.21872 61 ft 25 kts 199°
2026-05-06 21:47 12.00147 109.21816 62 ft 23 kts 199°
2026-05-06 21:47 12.00001 109.21765 63 ft 22 kts 199°
2026-05-06 21:47 11.99834 109.21708 59 ft 26 kts 199°
2026-05-06 21:47 11.99652 109.21644 57 ft 27 kts 198°
2026-05-06 21:48 11.99475 109.21583 57 ft 26 kts 199°
2026-05-06 21:48 11.99308 109.21525 56 ft 25 kts 198°
2026-05-06 21:48 11.99144 109.21468 55 ft 24 kts 199°
2026-05-06 21:48 11.98979 109.21410 49 ft 25 kts 197°
2026-05-06 21:49 11.98803 109.21351 42 ft 27 kts 199°
2026-05-06 21:49 11.98629 109.21289 39 ft 20 kts 196°
2026-05-06 21:49 11.98561 109.21350 41 ft 15 kts 97°
2026-05-06 21:49 11.98532 109.21453 41 ft 14 kts 108°
2026-05-06 21:50 11.98485 109.21532 41 ft 13 kts 156°
2026-05-06 21:50 11.98393 109.21562 39 ft 14 kts 167°
2026-05-06 21:50 11.98297 109.21584 39 ft 13 kts 164°
2026-05-06 21:50 11.98240 109.21642 41 ft 10 kts 99°
2026-05-06 21:51 11.98276 109.21693 42 ft 9 kts 23°
2026-05-06 21:51 11.98280 109.21695 42 ft 0 kts 21°
2026-05-06 21:51 11.98392 109.21735 43 ft 46 kts 18°
2026-05-06 21:52 11.98924 109.21920 53 ft 110 kts 18°
2026-05-06 21:52 11.99833 109.22232 57 ft 165 kts 18°
2026-05-06 21:52 12.01018 109.22649 387 ft 181 kts 18°
2026-05-06 21:52 12.02252 109.23009 903 ft 191 kts 11°
2026-05-06 21:53 12.03557 109.23332 1411 ft 197 kts 17°
2026-05-06 21:53 12.04937 109.23796 1629 ft 213 kts 19°
2026-05-06 21:53 12.06382 109.24277 1865 ft 228 kts 18°
2026-05-06 21:53 12.07973 109.24790 2100 ft 245 kts 16°
2026-05-06 21:54 12.09705 109.24929 2425 ft 257 kts 352°
2026-05-06 21:54 12.11495 109.24546 2954 ft 262 kts 347°
2026-05-06 21:54 12.13277 109.24090 3542 ft 264 kts 347°
2026-05-06 21:54 12.15061 109.23638 4102 ft 266 kts 348°
2026-05-06 21:55 12.16878 109.23183 4636 ft 269 kts 348°
2026-05-06 21:55 12.18712 109.22727 5195 ft 271 kts 348°
2026-05-06 21:55 12.20521 109.22089 5679 ft 278 kts 330°
2026-05-06 21:55 12.21948 109.20712 6136 ft 286 kts 306°
2026-05-06 21:56 12.22952 109.18969 6674 ft 288 kts 300°
2026-05-06 21:56 12.23889 109.17132 7194 ft 290 kts 299°
2026-05-06 21:56 12.24819 109.15300 7707 ft 292 kts 299°
2026-05-06 21:56 12.25771 109.13438 8193 ft 295 kts 300°
2026-05-06 21:57 12.26727 109.11575 8698 ft 297 kts 300°
2026-05-06 21:57 12.27637 109.09695 9141 ft 301 kts 290°
2026-05-06 21:57 12.27912 109.07550 9544 ft 307 kts 264°
2026-05-06 21:57 12.27275 109.05452 9923 ft 312 kts 240°
2026-05-06 21:58 12.26061 109.03584 10174 ft 323 kts 233°
2026-05-06 21:58 12.24649 109.01685 10303 ft 340 kts 232°
2026-05-06 21:58 12.23172 108.99716 10436 ft 355 kts 232°
2026-05-06 21:58 12.21637 108.97657 10579 ft 370 kts 232°
2026-05-06 21:59 12.20041 108.95510 10718 ft 385 kts 232°
2026-05-06 21:59 12.18379 108.93271 10934 ft 396 kts 233°
2026-05-06 21:59 12.16702 108.91012 11382 ft 399 kts 233°
2026-05-06 21:59 12.15028 108.88757 11843 ft 402 kts 233°
2026-05-06 22:00 12.13313 108.86447 12282 ft 405 kts 233°
2026-05-06 22:00 12.11599 108.84139 12727 ft 407 kts 233°
2026-05-06 22:00 12.09883 108.81828 13165 ft 410 kts 233°
2026-05-06 22:00 12.08164 108.79514 13581 ft 413 kts 233°
2026-05-06 22:01 12.06411 108.77154 14048 ft 414 kts 233°
2026-05-06 22:01 12.04671 108.74812 14476 ft 416 kts 232°
2026-05-06 22:01 12.02897 108.72424 14886 ft 419 kts 232°
2026-05-06 22:01 12.01129 108.70047 15295 ft 421 kts 232°
2026-05-06 22:02 11.99343 108.67645 15727 ft 423 kts 232°
2026-05-06 22:02 11.97568 108.65257 16153 ft 425 kts 232°
2026-05-06 22:02 11.95759 108.62826 16567 ft 427 kts 232°
2026-05-06 22:02 11.93958 108.60406 16973 ft 428 kts 232°
2026-05-06 22:03 11.92141 108.57964 17352 ft 431 kts 232°
2026-05-06 22:03 11.90325 108.55525 17735 ft 433 kts 232°
2026-05-06 22:03 11.88496 108.53069 18095 ft 436 kts 232°
2026-05-06 22:03 11.86634 108.50570 18487 ft 437 kts 232°
2026-05-06 22:04 11.84787 108.48080 18867 ft 439 kts 234°
2026-05-06 22:04 11.83219 108.45430 19220 ft 441 kts 244°
2026-05-06 22:04 11.82102 108.42505 19548 ft 444 kts 254°
2026-05-06 22:04 11.81493 108.39381 19881 ft 445 kts 264°
2026-05-06 22:05 11.81420 108.36223 20199 ft 447 kts 274°
2026-05-06 22:05 11.81866 108.33092 20529 ft 448 kts 284°
2026-05-06 22:05 11.82831 108.30048 20859 ft 449 kts 294°
2026-05-06 22:05 11.84287 108.27207 21169 ft 451 kts 303°
2026-05-06 22:06 11.86172 108.24680 21466 ft 452 kts 313°
2026-05-06 22:06 11.88440 108.22433 21767 ft 453 kts 318°
2026-05-06 22:06 11.90793 108.20258 22053 ft 456 kts 318°
2026-05-06 22:06 11.93140 108.18065 22359 ft 457 kts 318°
2026-05-06 22:07 11.95478 108.15855 22650 ft 460 kts 317°
2026-05-06 22:07 11.97823 108.13620 22936 ft 462 kts 317°
2026-05-06 22:07 12.00205 108.11335 23227 ft 464 kts 317°
2026-05-06 22:07 12.02566 108.09060 23506 ft 466 kts 317°
2026-05-06 22:08 12.04944 108.06762 23785 ft 469 kts 317°
2026-05-06 22:08 12.07332 108.04449 24064 ft 471 kts 317°
2026-05-06 22:08 12.09720 108.02129 24336 ft 473 kts 316°
2026-05-06 22:08 12.12099 107.99812 24604 ft 475 kts 316°
2026-05-06 22:09 12.14522 107.97456 24855 ft 477 kts 316°
2026-05-06 22:09 12.16925 107.95118 25136 ft 479 kts 316°
2026-05-06 22:09 12.19357 107.92748 25415 ft 480 kts 316°
2026-05-06 22:09 12.21803 107.90365 25674 ft 482 kts 316°
2026-05-06 22:10 12.24247 107.87982 25906 ft 485 kts 316°
2026-05-06 22:10 12.26698 107.85591 26154 ft 487 kts 316°
2026-05-06 22:10 12.29142 107.83206 26399 ft 488 kts 316°
2026-05-06 22:10 12.31631 107.80776 26625 ft 491 kts 316°
2026-05-06 22:11 12.34115 107.78350 26864 ft 492 kts 316°
2026-05-06 22:11 12.36588 107.75934 27108 ft 494 kts 316°
2026-05-06 22:11 12.39114 107.73465 27342 ft 496 kts 316°
2026-05-06 22:11 12.41606 107.71029 27575 ft 497 kts 316°
2026-05-06 22:12 12.44134 107.68556 27797 ft 499 kts 316°
2026-05-06 22:12 12.46634 107.66112 28039 ft 500 kts 316°
2026-05-06 22:12 12.49168 107.63631 28269 ft 502 kts 316°
2026-05-06 22:12 12.51637 107.61121 28476 ft 503 kts 311°
2026-05-06 22:13 12.53793 107.58250 28667 ft 505 kts 302°
2026-05-06 22:13 12.55481 107.55113 28877 ft 505 kts 294°
2026-05-06 22:13 12.56742 107.51723 29090 ft 506 kts 288°
2026-05-06 22:13 12.57822 107.48306 29328 ft 507 kts 287°
2026-05-06 22:14 12.58904 107.44839 29568 ft 508 kts 287°
2026-05-06 22:14 12.59982 107.41379 29812 ft 509 kts 287°
2026-05-06 22:14 12.61058 107.37929 30046 ft 509 kts 287°
2026-05-06 22:14 12.62131 107.34483 30322 ft 509 kts 287°
2026-05-06 22:15 12.63225 107.30972 30687 ft 507 kts 287°
2026-05-06 22:15 12.64284 107.27573 31078 ft 503 kts 287°
2026-05-06 22:15 12.65352 107.24143 31453 ft 501 kts 287°
2026-05-06 22:15 12.66405 107.20758 31774 ft 499 kts 287°
2026-05-06 22:16 12.67463 107.17358 31903 ft 500 kts 288°
2026-05-06 22:16 12.68522 107.13953 31908 ft 500 kts 288°
2026-05-06 22:16 12.70635 107.07150 31895 ft 500 kts 288°
2026-05-06 22:17 12.72764 107.00293 31888 ft 499 kts 288°
2026-05-06 22:17 12.74854 106.93555 31885 ft 498 kts 288°
2026-05-06 22:18 12.76953 106.86780 31877 ft 498 kts 288°
2026-05-06 22:18 12.79060 106.79972 31873 ft 498 kts 288°
2026-05-06 22:19 12.81150 106.73212 31866 ft 497 kts 288°
2026-05-06 22:19 12.83228 106.66486 31861 ft 497 kts 288°
2026-05-06 22:20 12.85323 106.59697 31863 ft 498 kts 288°
2026-05-06 22:20 12.87410 106.52929 31860 ft 498 kts 288°
2026-05-06 22:21 12.89507 106.46121 31859 ft 497 kts 288°
2026-05-06 22:21 12.91590 106.39352 31861 ft 498 kts 288°
2026-05-06 22:22 12.93675 106.32566 31859 ft 497 kts 287°
2026-05-06 22:22 12.95765 106.25763 31858 ft 500 kts 287°
2026-05-06 22:23 12.97856 106.18944 31857 ft 499 kts 287°
2026-05-06 22:23 12.99938 106.12152 31856 ft 499 kts 287°
2026-05-06 22:24 13.02024 106.05337 31856 ft 499 kts 288°
2026-05-06 22:24 13.04099 105.98553 31852 ft 499 kts 288°
2026-05-06 22:25 13.06173 105.91763 31857 ft 499 kts 287°
2026-05-06 22:25 13.08250 105.84956 31860 ft 499 kts 288°
2026-05-06 22:26 13.10315 105.78183 31863 ft 499 kts 288°
2026-05-06 22:26 13.12388 105.71376 31862 ft 499 kts 288°
2026-05-06 22:27 13.14451 105.64597 31858 ft 498 kts 288°
2026-05-06 22:27 13.16519 105.57792 31856 ft 498 kts 288°
2026-05-06 22:28 13.18586 105.50984 31850 ft 498 kts 288°
2026-05-06 22:28 13.20655 105.44162 31847 ft 498 kts 288°
2026-05-06 22:29 13.22703 105.37403 31842 ft 497 kts 288°
2026-05-06 22:29 13.24760 105.30607 31839 ft 498 kts 287°
2026-05-06 22:30 13.26816 105.23807 31837 ft 497 kts 287°
2026-05-06 22:30 13.28862 105.17036 31837 ft 497 kts 287°
2026-05-06 22:31 13.30912 105.10240 31838 ft 497 kts 287°
2026-05-06 22:31 13.32957 105.03457 31839 ft 497 kts 287°
2026-05-06 22:32 13.35007 104.96649 31839 ft 497 kts 287°
2026-05-06 22:32 13.37047 104.89866 31840 ft 497 kts 287°
2026-05-06 22:33 13.39085 104.83083 31838 ft 496 kts 287°
2026-05-06 22:33 13.41125 104.76286 31838 ft 497 kts 287°
2026-05-06 22:34 13.43166 104.69479 31843 ft 496 kts 287°
2026-05-06 22:34 13.45202 104.62682 31851 ft 497 kts 287°
2026-05-06 22:35 13.47242 104.55863 31848 ft 497 kts 287°
2026-05-06 22:35 13.49283 104.49034 31854 ft 497 kts 287°
2026-05-06 22:36 13.51310 104.42245 31850 ft 497 kts 287°
2026-05-06 22:36 13.53343 104.35430 31850 ft 496 kts 287°
2026-05-06 22:37 13.55359 104.28661 31851 ft 496 kts 287°
2026-05-06 22:37 13.57382 104.21863 31848 ft 496 kts 287°
2026-05-06 22:38 13.59397 104.15084 31852 ft 496 kts 287°
2026-05-06 22:38 13.61427 104.08247 31849 ft 497 kts 287°
2026-05-06 22:39 13.63434 104.01482 31839 ft 496 kts 287°
2026-05-06 22:39 13.65463 103.94636 31831 ft 497 kts 287°
2026-05-06 22:40 13.67481 103.87817 31832 ft 497 kts 287°
2026-05-06 22:40 13.69495 103.81004 31833 ft 498 kts 287°
2026-05-06 22:41 13.70696 103.73937 31833 ft 499 kts 273°
2026-05-06 22:41 13.70811 103.70367 31830 ft 500 kts 272°
2026-05-06 22:42 13.70987 103.63217 31829 ft 499 kts 272°
2026-05-06 22:42 13.71156 103.56033 31831 ft 499 kts 272°
2026-05-06 22:43 13.71319 103.48844 31959 ft 503 kts 272°
2026-05-06 22:43 13.71480 103.41621 32006 ft 512 kts 272°
2026-05-06 22:44 13.71642 103.34176 32009 ft 519 kts 272°
2026-05-06 22:44 13.71802 103.26688 32015 ft 523 kts 272°
2026-05-06 22:45 13.71960 103.19197 32017 ft 526 kts 272°
2026-05-06 22:45 13.72117 103.11634 32017 ft 526 kts 272°
2026-05-06 22:46 13.72271 103.04103 32021 ft 527 kts 272°
2026-05-06 22:46 13.72348 103.00314 32017 ft 516 kts 272°
2026-05-06 22:46 13.72420 102.96671 31938 ft 501 kts 272°
2026-05-06 22:46 13.72490 102.93142 31834 ft 490 kts 272°
2026-05-06 22:47 13.72560 102.89641 31832 ft 493 kts 272°
2026-05-06 22:47 13.72700 102.82484 31834 ft 500 kts 272°
2026-05-06 22:48 13.72839 102.75304 31832 ft 504 kts 272°
2026-05-06 22:48 13.72975 102.68124 31827 ft 503 kts 272°
2026-05-06 22:49 13.73108 102.60941 31830 ft 502 kts 272°
2026-05-06 22:49 13.73238 102.53753 31840 ft 501 kts 272°
2026-05-06 22:50 13.73366 102.46567 31847 ft 502 kts 272°
2026-05-06 22:50 13.73493 102.39341 31845 ft 502 kts 272°
2026-05-06 22:51 13.73618 102.32112 31850 ft 503 kts 271°
2026-05-06 22:51 13.73740 102.24896 31848 ft 503 kts 271°
2026-05-06 22:52 13.73859 102.17715 31842 ft 503 kts 271°
2026-05-06 22:52 13.73977 102.10505 31842 ft 503 kts 271°
2026-05-06 22:53 13.74093 102.03323 31844 ft 502 kts 271°
2026-05-06 22:53 13.74206 101.96118 31843 ft 501 kts 271°
2026-05-06 22:54 13.74317 101.88950 31844 ft 503 kts 271°
2026-05-06 22:54 13.74587 101.81725 31847 ft 502 kts 277°
2026-05-06 22:55 13.75453 101.74609 31838 ft 503 kts 278°
2026-05-06 22:55 13.76345 101.67414 31843 ft 503 kts 278°
2026-05-06 22:56 13.77222 101.60296 31839 ft 503 kts 278°
2026-05-06 22:56 13.78098 101.53153 31836 ft 504 kts 277°
2026-05-06 22:57 13.78972 101.46006 31835 ft 505 kts 277°
2026-05-06 22:57 13.79848 101.38822 31833 ft 506 kts 277°
2026-05-06 22:58 13.80728 101.31584 31833 ft 507 kts 277°
2026-05-06 22:58 13.81601 101.24384 31834 ft 505 kts 277°
2026-05-06 22:59 13.82472 101.17184 31834 ft 505 kts 277°
2026-05-06 22:59 13.83332 101.10050 31833 ft 504 kts 277°
2026-05-06 23:00 13.84203 101.02821 31842 ft 506 kts 277°
2026-05-06 23:00 13.85061 100.95671 31849 ft 507 kts 277°
2026-05-06 23:01 13.85925 100.88453 31852 ft 506 kts 277°
2026-05-06 23:01 13.86787 100.81235 31851 ft 507 kts 277°
2026-05-06 23:02 13.87642 100.74055 31845 ft 506 kts 277°
2026-05-06 23:02 13.88474 100.67057 31841 ft 506 kts 277°
2026-05-06 23:03 13.89685 100.59942 31841 ft 505 kts 288°
2026-05-06 23:03 13.92559 100.53342 31842 ft 505 kts 298°
2026-05-06 23:04 13.95841 100.46934 31837 ft 505 kts 298°
2026-05-06 23:04 13.99139 100.40489 31836 ft 506 kts 298°
2026-05-06 23:05 14.02422 100.34068 31833 ft 505 kts 298°
2026-05-06 23:05 14.05702 100.27644 31829 ft 506 kts 298°
2026-05-06 23:06 14.08985 100.21209 31828 ft 504 kts 298°
2026-05-06 23:06 14.12252 100.14798 31830 ft 504 kts 298°
2026-05-06 23:07 14.15508 100.08404 31830 ft 504 kts 298°
2026-05-06 23:07 14.18775 100.01983 31830 ft 504 kts 298°
2026-05-06 23:08 14.22041 99.95557 31831 ft 503 kts 298°
2026-05-06 23:08 14.25281 99.89180 31835 ft 503 kts 298°
2026-05-06 23:09 14.28534 99.82772 31839 ft 502 kts 298°
2026-05-06 23:09 14.31775 99.76381 31846 ft 502 kts 298°
2026-05-06 23:10 14.35022 99.69973 31845 ft 502 kts 299°
2026-05-06 23:10 14.38240 99.63617 31853 ft 501 kts 299°
2026-05-06 23:11 14.41475 99.57223 31856 ft 500 kts 299°
2026-05-06 23:11 14.44694 99.50855 31850 ft 500 kts 299°
2026-05-06 23:12 14.47929 99.44450 31874 ft 500 kts 299°
2026-05-06 23:12 14.51131 99.38105 31910 ft 499 kts 299°
2026-05-06 23:13 14.54351 99.31720 31933 ft 499 kts 299°
2026-05-06 23:13 14.57569 99.25331 31970 ft 497 kts 299°
2026-05-06 23:14 14.60766 99.18982 31965 ft 497 kts 299°
2026-05-06 23:14 14.63971 99.12609 31939 ft 496 kts 299°
2026-05-06 23:15 14.67136 99.06313 31925 ft 495 kts 299°
2026-05-06 23:15 14.70323 98.99966 31906 ft 496 kts 299°
2026-05-06 23:16 14.73490 98.93653 31912 ft 495 kts 299°
2026-05-06 23:16 14.76686 98.87279 31921 ft 497 kts 299°
2026-05-06 23:17 14.79860 98.80943 31943 ft 495 kts 299°
2026-05-06 23:17 14.83022 98.74624 31955 ft 495 kts 299°
2026-05-06 23:18 14.86204 98.68261 31955 ft 495 kts 299°
2026-05-06 23:18 14.89356 98.61952 31937 ft 494 kts 299°
2026-05-06 23:19 14.92526 98.55603 31918 ft 496 kts 299°
2026-05-06 23:19 14.95692 98.49257 31893 ft 496 kts 299°
2026-05-06 23:20 14.98864 98.42891 31897 ft 495 kts 299°
2026-05-06 23:20 15.02014 98.36566 31906 ft 495 kts 299°
2026-05-06 23:21 15.05180 98.30202 31922 ft 494 kts 298°
2026-05-06 23:21 15.08340 98.23844 31938 ft 494 kts 299°
2026-05-06 23:22 15.11518 98.17501 31926 ft 495 kts 299°
2026-05-06 23:22 15.14758 98.11146 31914 ft 495 kts 299°
2026-05-06 23:23 15.17958 98.04862 31903 ft 494 kts 299°
2026-05-06 23:23 15.21175 97.98535 31893 ft 493 kts 299°
2026-05-06 23:24 15.24375 97.92234 31884 ft 495 kts 299°
2026-05-06 23:24 15.27586 97.85906 31876 ft 494 kts 299°
2026-05-06 23:25 15.30790 97.79584 31868 ft 495 kts 299°
2026-05-06 23:25 15.33992 97.73261 31863 ft 495 kts 299°
2026-05-06 23:26 15.37177 97.66966 31859 ft 495 kts 299°
2026-05-06 23:26 15.40369 97.60651 31858 ft 495 kts 299°
2026-05-06 23:27 15.43580 97.54293 31853 ft 495 kts 299°
2026-05-06 23:27 15.46793 97.47926 31848 ft 495 kts 298°
2026-05-06 23:28 15.49987 97.41590 31843 ft 495 kts 298°
2026-05-06 23:28 15.53167 97.35277 31837 ft 495 kts 298°
2026-05-06 23:29 15.56351 97.28951 31839 ft 495 kts 298°
2026-05-06 23:29 15.59556 97.22577 31834 ft 495 kts 298°
2026-05-06 23:30 15.62730 97.16260 31832 ft 495 kts 298°
2026-05-06 23:30 15.65895 97.09954 31828 ft 494 kts 298°
2026-05-06 23:31 15.69077 97.03610 31828 ft 495 kts 298°
2026-05-06 23:31 15.72261 96.97255 31827 ft 495 kts 298°
2026-05-06 23:32 15.75419 96.90948 31826 ft 495 kts 298°
2026-05-06 23:32 15.78592 96.84603 31827 ft 495 kts 298°
2026-05-06 23:33 15.81751 96.78281 31827 ft 494 kts 297°
2026-05-06 23:33 15.84928 96.71918 31826 ft 494 kts 297°
2026-05-06 23:34 15.88081 96.65598 31826 ft 493 kts 298°
2026-05-06 23:34 15.91231 96.59277 31826 ft 494 kts 297°
2026-05-06 23:35 15.94392 96.52929 31826 ft 495 kts 297°
2026-05-06 23:35 15.97568 96.46545 31827 ft 495 kts 297°
2026-05-06 23:36 16.00721 96.40201 31830 ft 494 kts 297°
2026-05-06 23:36 16.03869 96.33862 31835 ft 495 kts 297°
2026-05-06 23:37 16.07031 96.27490 31841 ft 493 kts 297°
2026-05-06 23:37 16.10172 96.21152 31847 ft 493 kts 297°
2026-05-06 23:38 16.13346 96.14744 31847 ft 494 kts 297°
2026-05-06 23:38 16.16485 96.08398 31847 ft 493 kts 297°
2026-05-06 23:39 16.19617 96.02062 31847 ft 493 kts 297°
2026-05-06 23:39 16.22765 95.95689 31846 ft 493 kts 297°
2026-05-06 23:40 16.25904 95.89328 31835 ft 492 kts 297°
2026-05-06 23:40 16.29007 95.83033 31829 ft 492 kts 297°
2026-05-06 23:41 16.32135 95.76681 31826 ft 491 kts 297°
2026-05-06 23:41 16.35253 95.70345 31828 ft 491 kts 297°
2026-05-06 23:42 16.38375 95.63994 31825 ft 490 kts 296°
2026-05-06 23:42 16.41472 95.57689 31828 ft 491 kts 296°
2026-05-06 23:43 16.44577 95.51360 31828 ft 489 kts 296°
2026-05-06 23:43 16.47684 95.45023 31827 ft 489 kts 296°
2026-05-06 23:44 16.50785 95.38690 31827 ft 488 kts 296°
2026-05-06 23:44 16.53872 95.32381 31830 ft 488 kts 296°
2026-05-06 23:45 16.56961 95.26063 31829 ft 488 kts 296°
2026-05-06 23:45 16.60048 95.19742 31829 ft 488 kts 296°
2026-05-06 23:46 16.63116 95.13454 31826 ft 487 kts 296°
2026-05-06 23:46 16.66196 95.07137 31829 ft 486 kts 296°
2026-05-06 23:47 16.69248 95.00869 31827 ft 485 kts 296°
2026-05-06 23:47 16.72319 94.94558 31828 ft 485 kts 296°
2026-05-06 23:48 16.75369 94.88284 31827 ft 486 kts 295°
2026-05-06 23:48 16.78453 94.81934 31827 ft 486 kts 296°
2026-05-06 23:49 16.81776 94.75795 31831 ft 488 kts 305°
2026-05-06 23:49 16.86023 94.70261 31834 ft 488 kts 307°
2026-05-06 23:50 16.90328 94.64745 31838 ft 488 kts 307°
2026-05-06 23:50 16.96755 94.56478 31839 ft 488 kts 307°
2026-05-06 23:51 17.01028 94.50968 31838 ft 486 kts 307°
2026-05-06 23:51 17.05311 94.45439 31837 ft 488 kts 307°
2026-05-06 23:52 17.09556 94.39954 31841 ft 487 kts 307°
2026-05-06 23:52 17.13865 94.34379 31840 ft 488 kts 307°
2026-05-06 23:53 17.18093 94.28906 31846 ft 487 kts 307°
2026-05-06 23:53 17.22382 94.23348 31846 ft 487 kts 307°
2026-05-06 23:54 17.26603 94.17874 31847 ft 486 kts 306°
2026-05-06 23:54 17.30872 94.12332 31842 ft 487 kts 306°
2026-05-06 23:55 17.35099 94.06840 31831 ft 487 kts 306°
2026-05-06 23:55 17.39352 94.01312 31828 ft 486 kts 306°
2026-05-06 23:56 17.43620 93.95758 31827 ft 487 kts 306°
2026-05-06 23:56 17.47861 93.90236 31827 ft 487 kts 306°
2026-05-06 23:57 17.52097 93.84714 31827 ft 488 kts 306°
2026-05-06 23:57 17.56346 93.79172 31827 ft 486 kts 306°
2026-05-06 23:58 17.60588 93.73635 31829 ft 486 kts 306°
2026-05-06 23:58 17.64795 93.68138 31828 ft 486 kts 306°
2026-05-06 23:59 17.69028 93.62602 31828 ft 485 kts 306°
2026-05-06 23:59 17.73268 93.57053 31833 ft 486 kts 306°
2026-05-07 00:00 17.77492 93.51520 31839 ft 485 kts 306°
2026-05-07 00:00 17.81718 93.45979 31842 ft 486 kts 306°
2026-05-07 00:01 17.85934 93.40447 31844 ft 486 kts 306°
2026-05-07 00:01 17.90159 93.34899 31843 ft 486 kts 306°
2026-05-07 00:02 17.94371 93.29364 31851 ft 485 kts 306°
2026-05-07 00:02 17.98591 93.23813 31851 ft 485 kts 306°
2026-05-07 00:03 18.02784 93.18293 31850 ft 486 kts 305°
2026-05-07 00:03 18.07001 93.12736 31851 ft 486 kts 305°
2026-05-07 00:04 18.11248 93.07135 31848 ft 486 kts 305°
2026-05-07 00:04 18.15431 93.01614 31847 ft 486 kts 305°
2026-05-07 00:05 18.19639 92.96055 31849 ft 485 kts 305°
2026-05-07 00:05 18.23849 92.90488 31852 ft 486 kts 305°
2026-05-07 00:06 18.28033 92.84951 31854 ft 484 kts 305°
2026-05-07 00:06 18.32230 92.79393 31851 ft 485 kts 305°
2026-05-07 00:07 18.36432 92.73822 31858 ft 483 kts 305°
2026-05-07 00:07 18.40613 92.68276 31852 ft 484 kts 305°
2026-05-07 00:08 18.44809 92.62703 31844 ft 484 kts 305°
2026-05-07 00:08 18.48979 92.57160 31843 ft 483 kts 305°
2026-05-07 00:09 18.53143 92.51620 31844 ft 482 kts 305°
2026-05-07 00:09 18.57303 92.46083 31843 ft 482 kts 305°
2026-05-07 00:10 18.61463 92.40539 31842 ft 481 kts 305°
2026-05-07 00:10 18.65630 92.34981 31843 ft 481 kts 305°
2026-05-07 00:11 18.69772 92.29452 31852 ft 480 kts 304°
2026-05-07 00:11 18.73922 92.23907 31851 ft 480 kts 304°
2026-05-07 00:12 18.78050 92.18386 31852 ft 480 kts 304°
2026-05-07 00:12 18.82185 92.12851 31856 ft 482 kts 304°
2026-05-07 00:13 18.86337 92.07289 31866 ft 482 kts 304°
2026-05-07 00:13 18.90479 92.01736 31869 ft 480 kts 304°
2026-05-07 00:14 18.94599 91.96162 31868 ft 480 kts 304°
2026-05-07 00:14 18.98666 91.90591 31867 ft 480 kts 304°
2026-05-07 00:15 19.02731 91.85023 31868 ft 481 kts 304°
2026-05-07 00:15 19.06824 91.79414 31866 ft 479 kts 304°
2026-05-07 00:16 19.10913 91.73805 31860 ft 480 kts 304°
2026-05-07 00:16 19.14974 91.68230 31855 ft 481 kts 304°
2026-05-07 00:17 19.19073 91.62599 31850 ft 481 kts 304°
2026-05-07 00:17 19.23146 91.56999 31846 ft 480 kts 304°
2026-05-07 00:18 19.27203 91.51416 31843 ft 479 kts 304°
2026-05-07 00:18 19.31282 91.45797 31840 ft 481 kts 304°
2026-05-07 00:19 19.35359 91.40176 31839 ft 481 kts 304°
2026-05-07 00:19 19.39420 91.34571 31838 ft 481 kts 303°
2026-05-07 00:20 19.43510 91.28922 31846 ft 481 kts 303°
2026-05-07 00:20 19.47577 91.23301 31849 ft 479 kts 303°
2026-05-07 00:21 19.51627 91.17695 31849 ft 481 kts 303°
2026-05-07 00:21 19.55688 91.12071 31846 ft 479 kts 303°
2026-05-07 00:22 19.59756 91.06431 31845 ft 479 kts 303°
2026-05-07 00:22 19.63796 91.00824 31845 ft 479 kts 303°
2026-05-07 00:23 19.67855 90.95187 31847 ft 479 kts 303°
2026-05-07 00:23 19.71893 90.89573 31845 ft 479 kts 303°
2026-05-07 00:24 19.75940 90.83941 31846 ft 478 kts 303°
2026-05-07 00:24 19.79978 90.78316 31846 ft 479 kts 303°
2026-05-07 00:25 19.84005 90.72701 31844 ft 479 kts 303°
2026-05-07 00:25 19.88057 90.67047 31847 ft 479 kts 303°
2026-05-07 00:26 19.92086 90.61418 31855 ft 478 kts 303°
2026-05-07 00:26 19.96108 90.55796 31854 ft 477 kts 303°
2026-05-07 00:27 20.00126 90.50172 31855 ft 477 kts 303°
2026-05-07 00:27 20.04122 90.44574 31858 ft 476 kts 303°
2026-05-07 00:28 20.08118 90.38971 31862 ft 475 kts 303°
2026-05-07 00:28 20.12140 90.33326 31869 ft 475 kts 303°
2026-05-07 00:29 20.16108 90.27751 31871 ft 474 kts 303°
2026-05-07 00:30 20.24091 90.16519 31869 ft 474 kts 302°
2026-05-07 00:30 20.28060 90.10928 31869 ft 475 kts 303°
2026-05-07 00:31 20.32018 90.05346 31869 ft 474 kts 303°
2026-05-07 00:31 20.36014 89.99704 31868 ft 474 kts 302°
2026-05-07 00:32 20.39971 89.94114 31868 ft 473 kts 302°
2026-05-07 00:32 20.43925 89.88522 31867 ft 472 kts 302°
2026-05-07 00:33 20.47874 89.82930 31866 ft 472 kts 302°
2026-05-07 00:33 20.51817 89.77342 31866 ft 473 kts 302°
2026-05-07 00:34 20.55792 89.71703 31865 ft 475 kts 302°
2026-05-07 00:34 20.59767 89.66061 31863 ft 474 kts 302°
2026-05-07 00:35 20.63706 89.60462 31859 ft 473 kts 302°
2026-05-07 00:35 20.67645 89.54859 31850 ft 472 kts 302°
2026-05-07 00:36 20.71596 89.49232 31843 ft 473 kts 302°
2026-05-07 00:36 20.75531 89.43623 31842 ft 473 kts 302°
2026-05-07 00:37 20.79493 89.37968 31841 ft 473 kts 302°
2026-05-07 00:37 20.83442 89.32330 31854 ft 471 kts 302°
2026-05-07 00:38 20.87355 89.26734 31853 ft 472 kts 302°
2026-05-07 00:38 20.91292 89.21101 31852 ft 470 kts 302°
2026-05-07 00:39 20.95001 89.15396 31851 ft 469 kts 299°
2026-05-07 00:39 20.98632 89.09563 31850 ft 468 kts 299°
2026-05-07 00:40 21.02232 89.03798 31850 ft 469 kts 299°
2026-05-07 00:40 21.05867 88.97987 31851 ft 468 kts 299°
2026-05-07 00:41 21.09491 88.92193 31846 ft 468 kts 299°
2026-05-07 00:41 21.13125 88.86382 31844 ft 468 kts 299°
2026-05-07 00:42 21.16766 88.80556 31842 ft 468 kts 299°
2026-05-07 00:42 21.20399 88.74737 31840 ft 469 kts 299°
2026-05-07 00:43 21.24036 88.68907 31842 ft 470 kts 299°
2026-05-07 00:43 21.27637 88.63129 31845 ft 468 kts 299°
2026-05-07 00:44 21.31262 88.57306 31850 ft 469 kts 299°
2026-05-07 00:44 21.34899 88.51475 31849 ft 467 kts 300°
2026-05-07 00:45 21.38576 88.45723 31848 ft 470 kts 300°
2026-05-07 00:45 21.42289 88.39915 31847 ft 468 kts 300°
2026-05-07 00:46 21.45973 88.34140 31851 ft 468 kts 299°
2026-05-07 00:46 21.49672 88.28332 31862 ft 469 kts 299°
2026-05-07 00:47 21.53367 88.22523 31863 ft 469 kts 299°
2026-05-07 00:47 21.57023 88.16771 31863 ft 468 kts 299°
2026-05-07 00:48 21.60705 88.10969 31858 ft 468 kts 299°
2026-05-07 00:48 21.64374 88.05183 31850 ft 467 kts 299°
2026-05-07 00:49 21.68021 87.99423 31844 ft 466 kts 299°
2026-05-07 00:49 21.71684 87.93633 31848 ft 467 kts 299°
2026-05-07 00:50 21.75321 87.87878 31849 ft 467 kts 299°
2026-05-07 00:50 21.78987 87.82072 31846 ft 466 kts 299°
2026-05-07 00:51 21.82618 87.76314 31844 ft 467 kts 299°
2026-05-07 00:51 21.86269 87.70519 31841 ft 467 kts 299°
2026-05-07 00:52 21.89928 87.64705 31837 ft 466 kts 299°
2026-05-07 00:52 21.93565 87.58919 31842 ft 468 kts 299°
2026-05-07 00:53 21.97211 87.53114 31845 ft 467 kts 299°
2026-05-07 00:53 22.00862 87.47294 31845 ft 466 kts 299°
2026-05-07 00:54 22.04515 87.41464 31843 ft 466 kts 298°
2026-05-07 00:54 22.08120 87.35706 31844 ft 465 kts 299°
2026-05-07 00:55 22.11819 87.29789 31853 ft 465 kts 298°
2026-05-07 00:55 22.15431 87.24005 31854 ft 464 kts 298°
2026-05-07 00:56 22.19059 87.18190 31853 ft 466 kts 298°
2026-05-07 00:56 22.22675 87.12389 31853 ft 464 kts 298°
2026-05-07 00:57 22.26280 87.06597 31852 ft 467 kts 298°
2026-05-07 00:57 22.29896 87.00783 31851 ft 463 kts 298°
2026-05-07 00:58 22.33491 86.94995 31852 ft 466 kts 298°
2026-05-07 00:58 22.37088 86.89201 31855 ft 463 kts 298°
2026-05-07 00:59 22.42450 86.80546 31858 ft 462 kts 298°
2026-05-07 01:00 22.46053 86.74725 31860 ft 463 kts 298°
2026-05-07 01:00 22.49605 86.68978 31863 ft 461 kts 298°
2026-05-07 01:01 22.53187 86.63177 31864 ft 462 kts 298°
2026-05-07 01:01 22.56752 86.57397 31860 ft 461 kts 298°
2026-05-07 01:02 22.60302 86.51636 31854 ft 461 kts 298°
2026-05-07 01:02 22.63860 86.45855 31861 ft 460 kts 298°
2026-05-07 01:03 22.67394 86.40108 31857 ft 457 kts 298°
2026-05-07 01:03 22.70940 86.34332 31857 ft 460 kts 298°
2026-05-07 01:04 22.74490 86.28546 31868 ft 457 kts 297°
2026-05-07 01:04 22.78020 86.22785 31865 ft 459 kts 297°
2026-05-07 01:05 22.81623 86.17064 31862 ft 460 kts 302°
2026-05-07 01:05 22.85870 86.11839 31868 ft 465 kts 305°
2026-05-07 01:06 22.90191 86.06625 31875 ft 463 kts 305°
2026-05-07 01:06 22.94472 86.01444 31881 ft 462 kts 305°
2026-05-07 01:07 22.98790 85.96207 31883 ft 460 kts 305°
2026-05-07 01:07 23.03044 85.91039 31890 ft 461 kts 305°
2026-05-07 01:08 23.07331 85.85825 31893 ft 461 kts 304°
2026-05-07 01:08 23.11651 85.80562 31887 ft 462 kts 304°
2026-05-07 01:09 23.15946 85.75326 31888 ft 461 kts 304°
2026-05-07 01:09 23.20229 85.70097 31897 ft 462 kts 304°
2026-05-07 01:10 23.24498 85.64883 31905 ft 460 kts 304°
2026-05-07 01:10 23.28756 85.59672 31925 ft 462 kts 304°
2026-05-07 01:11 23.33028 85.54443 31934 ft 460 kts 304°
2026-05-07 01:11 23.37303 85.49201 31942 ft 463 kts 304°
2026-05-07 01:12 23.41581 85.43954 31947 ft 461 kts 304°
2026-05-07 01:12 23.45840 85.38720 31948 ft 464 kts 304°
2026-05-07 01:13 23.50112 85.33469 31962 ft 461 kts 304°
2026-05-07 01:13 23.54393 85.28198 31969 ft 462 kts 304°
2026-05-07 01:14 23.58631 85.22976 31972 ft 462 kts 304°
2026-05-07 01:14 23.62902 85.17709 31971 ft 461 kts 304°
2026-05-07 01:15 23.67152 85.12459 31963 ft 463 kts 303°
2026-05-07 01:15 23.71420 85.07184 31958 ft 462 kts 303°
2026-05-07 01:16 23.75678 85.01914 31953 ft 463 kts 303°
2026-05-07 01:16 23.79943 84.96630 31948 ft 462 kts 303°
2026-05-07 01:17 23.84223 84.91321 31950 ft 464 kts 304°
2026-05-07 01:17 23.88471 84.86048 31947 ft 462 kts 304°
2026-05-07 01:18 23.92711 84.80780 31950 ft 461 kts 303°
2026-05-07 01:18 23.96973 84.75475 31946 ft 462 kts 303°
2026-05-07 01:19 24.01184 84.70232 31936 ft 460 kts 303°
2026-05-07 01:19 24.05426 84.64942 31925 ft 461 kts 303°
2026-05-07 01:20 24.09664 84.59650 31907 ft 461 kts 303°
2026-05-07 01:20 24.13942 84.54305 31891 ft 460 kts 303°
2026-05-07 01:21 24.18171 84.49015 31886 ft 459 kts 303°
2026-05-07 01:21 24.22379 84.43737 31886 ft 459 kts 303°
2026-05-07 01:22 24.26587 84.38425 31887 ft 460 kts 303°
2026-05-07 01:22 24.30807 84.33092 31901 ft 459 kts 303°
2026-05-07 01:23 24.35005 84.27782 31901 ft 458 kts 303°
2026-05-07 01:23 24.39190 84.22481 31893 ft 460 kts 303°
2026-05-07 01:24 24.43353 84.17204 31889 ft 458 kts 303°
2026-05-07 01:24 24.47547 84.11881 31883 ft 460 kts 303°
2026-05-07 01:25 24.51740 84.06555 31876 ft 459 kts 303°
2026-05-07 01:25 24.55945 84.01207 31879 ft 458 kts 304°
2026-05-07 01:26 24.60103 83.95912 31882 ft 459 kts 304°
2026-05-07 01:26 24.64300 83.90564 31886 ft 458 kts 304°
2026-05-07 01:27 24.68472 83.85238 31884 ft 458 kts 304°
2026-05-07 01:27 24.72637 83.79918 31882 ft 458 kts 304°
2026-05-07 01:28 24.76788 83.74609 31873 ft 459 kts 304°
2026-05-07 01:28 24.80951 83.69279 31872 ft 458 kts 304°
2026-05-07 01:29 24.85118 83.63937 31871 ft 459 kts 304°
2026-05-07 01:29 24.89297 83.58575 31866 ft 458 kts 304°
2026-05-07 01:30 24.93451 83.53239 31861 ft 458 kts 304°
2026-05-07 01:30 24.97587 83.47920 31852 ft 457 kts 304°
2026-05-07 01:31 25.01719 83.42598 31838 ft 456 kts 304°
2026-05-07 01:31 25.05846 83.37277 31835 ft 457 kts 304°
2026-05-07 01:32 25.10025 83.31884 31850 ft 457 kts 304°
2026-05-07 01:32 25.14233 83.26447 31846 ft 456 kts 304°
2026-05-07 01:33 25.18350 83.21121 31851 ft 458 kts 304°
2026-05-07 01:33 25.22502 83.15744 31849 ft 458 kts 304°
2026-05-07 01:34 25.26614 83.10413 31849 ft 457 kts 304°
2026-05-07 01:34 25.30774 83.05013 31845 ft 456 kts 304°
2026-05-07 01:35 25.34892 82.99662 31843 ft 456 kts 304°
2026-05-07 01:35 25.39015 82.94298 31844 ft 456 kts 304°
2026-05-07 01:36 25.43114 82.88959 31849 ft 458 kts 304°
2026-05-07 01:36 25.47185 82.83512 31843 ft 455 kts 302°
2026-05-07 01:37 25.50956 82.77878 31839 ft 455 kts 301°
2026-05-07 01:37 25.54739 82.72238 31846 ft 456 kts 302°
2026-05-07 01:38 25.58515 82.66625 31850 ft 456 kts 302°
2026-05-07 01:38 25.62318 82.60976 31850 ft 454 kts 302°
2026-05-07 01:39 25.66107 82.55347 31855 ft 455 kts 302°
2026-05-07 01:39 25.69904 82.49704 31853 ft 456 kts 302°
2026-05-07 01:40 25.73691 82.44070 31849 ft 455 kts 302°
2026-05-07 01:40 25.77478 82.38429 31845 ft 456 kts 302°
2026-05-07 01:41 25.81286 82.32751 31864 ft 455 kts 302°
2026-05-07 01:41 25.85066 82.27108 31866 ft 456 kts 302°
2026-05-07 01:42 25.88853 82.21448 31862 ft 454 kts 302°
2026-05-07 01:42 25.92612 82.15823 31862 ft 455 kts 302°
2026-05-07 01:43 25.96391 82.10161 31861 ft 454 kts 302°
2026-05-07 01:43 26.00166 82.04497 31863 ft 455 kts 302°
2026-05-07 01:44 26.03930 81.98843 31864 ft 456 kts 302°
2026-05-07 01:44 26.07698 81.93178 31859 ft 455 kts 302°
2026-05-07 01:45 26.11479 81.87485 31866 ft 455 kts 302°
2026-05-07 01:45 26.15256 81.81791 31860 ft 455 kts 302°
2026-05-07 01:46 26.19009 81.76127 31850 ft 455 kts 302°
2026-05-07 01:46 26.22774 81.70437 31854 ft 453 kts 302°
2026-05-07 01:47 26.26526 81.64759 31853 ft 454 kts 302°
2026-05-07 01:47 26.30270 81.59088 31844 ft 453 kts 302°
2026-05-07 01:48 26.34011 81.53414 31851 ft 453 kts 302°
2026-05-07 01:48 26.37756 81.47725 31848 ft 453 kts 302°
2026-05-07 01:49 26.41462 81.42091 31855 ft 453 kts 303°
2026-05-07 01:49 26.45205 81.36391 31842 ft 452 kts 303°
2026-05-07 01:50 26.48950 81.30683 31869 ft 452 kts 302°
2026-05-07 01:50 26.52665 81.25011 31867 ft 452 kts 302°
2026-05-07 01:51 26.56371 81.19347 31871 ft 453 kts 302°
2026-05-07 01:51 26.60077 81.13676 31869 ft 451 kts 302°
2026-05-07 01:52 26.63774 81.08012 31870 ft 452 kts 302°
2026-05-07 01:52 26.67483 81.02323 31877 ft 450 kts 302°
2026-05-07 01:53 26.71191 80.96628 31864 ft 450 kts 303°
2026-05-07 01:53 26.74871 80.90968 31870 ft 451 kts 303°
2026-05-07 01:54 26.78781 80.85435 31876 ft 455 kts 308°
2026-05-07 01:54 26.82937 80.80092 31870 ft 454 kts 307°
2026-05-07 01:55 26.87063 80.74743 31877 ft 455 kts 307°
2026-05-07 01:55 26.91182 80.69372 31860 ft 453 kts 307°
2026-05-07 01:56 26.95284 80.64004 31877 ft 453 kts 307°
2026-05-07 01:56 26.99408 80.58593 31860 ft 454 kts 307°
2026-05-07 01:57 27.03487 80.53230 31865 ft 453 kts 307°
2026-05-07 01:57 27.07601 80.47814 31863 ft 453 kts 307°
2026-05-07 01:58 27.11707 80.42402 31867 ft 452 kts 307°
2026-05-07 01:58 27.15789 80.37011 31858 ft 454 kts 307°
2026-05-07 01:59 27.19901 80.31576 31877 ft 454 kts 307°
2026-05-07 01:59 27.23989 80.26166 31872 ft 453 kts 307°
2026-05-07 02:00 27.28071 80.20757 31869 ft 453 kts 307°
2026-05-07 02:00 27.32165 80.15324 31869 ft 455 kts 307°
2026-05-07 02:01 27.36254 80.09892 31875 ft 454 kts 307°
2026-05-07 02:01 27.40328 80.04474 31873 ft 454 kts 307°
2026-05-07 02:02 27.44413 79.99034 31875 ft 453 kts 307°
2026-05-07 02:02 27.48475 79.93617 31860 ft 454 kts 307°
2026-05-07 02:03 27.52560 79.88162 31856 ft 453 kts 307°
2026-05-07 02:03 27.56612 79.82746 31853 ft 453 kts 307°
2026-05-07 02:04 27.60702 79.77271 31856 ft 452 kts 307°
2026-05-07 02:04 27.64765 79.71826 31861 ft 453 kts 308°
2026-05-07 02:05 27.68814 79.66393 31872 ft 452 kts 308°
2026-05-07 02:05 27.73152 79.61193 31869 ft 454 kts 313°
2026-05-07 02:06 27.77659 79.56237 31874 ft 453 kts 313°
2026-05-07 02:06 27.82153 79.51247 31866 ft 453 kts 313°
2026-05-07 02:07 27.86658 79.46211 31875 ft 451 kts 313°
2026-05-07 02:07 27.93326 79.38724 31872 ft 452 kts 313°
2026-05-07 02:08 27.97802 79.33684 31873 ft 451 kts 312°
2026-05-07 02:08 28.02226 79.28693 31875 ft 448 kts 313°
2026-05-07 02:09 28.06662 79.23681 31879 ft 451 kts 313°
2026-05-07 02:09 28.11109 79.18650 31887 ft 448 kts 313°
2026-05-07 02:10 28.15497 79.13680 31885 ft 449 kts 313°
2026-05-07 02:10 28.19926 79.08656 31898 ft 452 kts 313°
2026-05-07 02:11 28.24395 79.03582 31882 ft 451 kts 313°
2026-05-07 02:11 28.28838 78.98530 31882 ft 450 kts 313°
2026-05-07 02:12 28.33269 78.93485 31885 ft 452 kts 313°
2026-05-07 02:12 28.37699 78.88436 31884 ft 452 kts 313°
2026-05-07 02:13 28.42131 78.83378 31883 ft 450 kts 313°
2026-05-07 02:13 28.46615 78.78323 31879 ft 452 kts 316°
2026-05-07 02:14 28.51557 78.73927 31878 ft 454 kts 320°
2026-05-07 02:14 28.56612 78.69556 31877 ft 454 kts 320°
2026-05-07 02:15 28.61636 78.65198 31886 ft 453 kts 320°
2026-05-07 02:15 28.66669 78.60825 31885 ft 454 kts 320°
2026-05-07 02:16 28.71691 78.56453 31880 ft 454 kts 320°
2026-05-07 02:16 28.76719 78.52069 31890 ft 456 kts 321°
2026-05-07 02:17 28.81755 78.47674 31884 ft 455 kts 320°
2026-05-07 02:17 28.86773 78.43288 31882 ft 454 kts 321°
2026-05-07 02:18 28.91818 78.38872 31893 ft 454 kts 320°
2026-05-07 02:18 28.96849 78.34464 31898 ft 456 kts 320°
2026-05-07 02:19 29.01865 78.30063 31898 ft 454 kts 320°
2026-05-07 02:19 29.06897 78.25642 31912 ft 455 kts 320°
2026-05-07 02:20 29.11885 78.21253 31899 ft 456 kts 320°
2026-05-07 02:20 29.16924 78.16816 31901 ft 456 kts 320°
2026-05-07 02:21 29.21974 78.12363 31899 ft 456 kts 320°
2026-05-07 02:21 29.27002 78.07922 31896 ft 456 kts 320°
2026-05-07 02:22 29.32043 78.03465 31900 ft 457 kts 321°
2026-05-07 02:22 29.37076 77.99010 31897 ft 456 kts 321°
2026-05-07 02:23 29.42122 77.94538 31894 ft 458 kts 321°
2026-05-07 02:23 29.47177 77.90050 31883 ft 458 kts 321°
2026-05-07 02:24 29.52217 77.85571 31891 ft 460 kts 321°
2026-05-07 02:24 29.57311 77.81039 31878 ft 461 kts 321°
2026-05-07 02:25 29.62361 77.76540 31889 ft 459 kts 321°
2026-05-07 02:25 29.67446 77.72003 31887 ft 463 kts 322°
2026-05-07 02:26 29.72547 77.67446 31901 ft 462 kts 322°
2026-05-07 02:26 29.77654 77.62878 31907 ft 465 kts 322°
2026-05-07 02:27 29.82784 77.58282 31906 ft 466 kts 322°
2026-05-07 02:27 29.87891 77.53702 31896 ft 462 kts 321°
2026-05-07 02:28 29.93036 77.49081 31902 ft 465 kts 321°
2026-05-07 02:28 29.98171 77.44510 31900 ft 464 kts 325°
2026-05-07 02:29 30.03824 77.40908 31893 ft 464 kts 332°
2026-05-07 02:29 30.09542 77.37603 31899 ft 465 kts 332°
2026-05-07 02:30 30.15229 77.34306 31928 ft 467 kts 332°
2026-05-07 02:30 30.20991 77.30956 31914 ft 466 kts 332°
2026-05-07 02:31 30.26820 77.27560 31911 ft 466 kts 332°
2026-05-07 02:31 30.32626 77.24171 31927 ft 467 kts 332°
2026-05-07 02:32 30.38325 77.20486 31932 ft 466 kts 323°
2026-05-07 02:32 30.42996 77.15254 31949 ft 471 kts 308°
2026-05-07 02:33 30.46980 77.09225 31942 ft 468 kts 308°
2026-05-07 02:33 30.50923 77.03202 31940 ft 473 kts 307°
2026-05-07 02:34 30.54896 76.97125 31946 ft 470 kts 307°
2026-05-07 02:34 30.58836 76.91090 31920 ft 467 kts 307°
2026-05-07 02:35 30.62792 76.85020 31910 ft 468 kts 308°
2026-05-07 02:35 30.66708 76.78986 31890 ft 467 kts 306°
2026-05-07 02:36 30.69742 76.72244 31898 ft 472 kts 293°
2026-05-07 02:36 30.72188 76.65150 31897 ft 471 kts 293°
2026-05-07 02:37 30.74594 76.58128 31906 ft 469 kts 293°
2026-05-07 02:37 30.77009 76.51073 31896 ft 468 kts 293°
2026-05-07 02:38 30.79397 76.44078 31898 ft 465 kts 293°
2026-05-07 02:38 30.81771 76.37115 31904 ft 466 kts 293°
2026-05-07 02:39 30.84152 76.30112 31887 ft 464 kts 292°
2026-05-07 02:39 30.86541 76.23074 31891 ft 464 kts 292°
2026-05-07 02:40 30.88902 76.16105 31873 ft 464 kts 292°
2026-05-07 02:40 30.91263 76.09121 31884 ft 465 kts 292°
2026-05-07 02:41 30.93629 76.02104 31867 ft 464 kts 292°
2026-05-07 02:41 30.95995 75.95076 31861 ft 465 kts 292°
2026-05-07 02:42 30.98344 75.88084 31856 ft 464 kts 293°
2026-05-07 02:42 31.00700 75.81053 31860 ft 463 kts 292°
2026-05-07 02:43 31.03034 75.74075 31859 ft 463 kts 293°
2026-05-07 02:43 31.05375 75.67060 31861 ft 463 kts 293°
2026-05-07 02:44 31.07695 75.60096 31858 ft 464 kts 293°
2026-05-07 02:44 31.10021 75.53098 31859 ft 461 kts 293°
2026-05-07 02:45 31.12187 75.46083 31886 ft 464 kts 289°
2026-05-07 02:45 31.14014 75.38918 31850 ft 462 kts 289°
2026-05-07 02:46 31.15821 75.31793 31850 ft 463 kts 288°
2026-05-07 02:46 31.17648 75.24573 31852 ft 459 kts 288°
2026-05-07 02:47 31.19448 75.17448 31843 ft 461 kts 289°
2026-05-07 02:47 31.21257 75.10271 31851 ft 460 kts 289°
2026-05-07 02:48 31.23063 75.03083 31860 ft 460 kts 289°
2026-05-07 02:48 31.24855 74.95936 31851 ft 460 kts 289°
2026-05-07 02:49 31.26655 74.88740 31855 ft 460 kts 289°
2026-05-07 02:49 31.28450 74.81542 31848 ft 460 kts 289°
2026-05-07 02:50 31.30236 74.74361 31840 ft 459 kts 289°
2026-05-07 02:50 31.31999 74.67255 31841 ft 458 kts 289°
2026-05-07 02:51 31.33788 74.60025 31843 ft 458 kts 289°
2026-05-07 02:51 31.35434 74.52897 31837 ft 459 kts 286°
2026-05-07 02:52 31.36789 74.45568 31827 ft 461 kts 286°
2026-05-07 02:52 31.38153 74.38232 31828 ft 460 kts 286°
2026-05-07 02:53 31.39515 74.30959 31830 ft 460 kts 285°
2026-05-07 02:53 31.40885 74.23645 31827 ft 460 kts 286°
2026-05-07 02:54 31.42256 74.16322 31829 ft 459 kts 286°
2026-05-07 02:54 31.43614 74.09055 31825 ft 460 kts 286°
2026-05-07 02:55 31.44673 74.01630 31824 ft 465 kts 277°
2026-05-07 02:55 31.44238 73.94007 31840 ft 472 kts 268°
2026-05-07 02:56 31.43474 73.86393 31843 ft 470 kts 268°
2026-05-07 02:56 31.42704 73.78785 31838 ft 472 kts 268°
2026-05-07 02:57 31.41928 73.71165 31837 ft 471 kts 268°
2026-05-07 02:57 31.41144 73.63542 31834 ft 471 kts 268°
2026-05-07 02:58 31.40357 73.55924 31835 ft 470 kts 268°
2026-05-07 02:58 31.39564 73.48302 31826 ft 470 kts 268°
2026-05-07 02:59 31.38769 73.40697 31826 ft 470 kts 268°
2026-05-07 02:59 31.37972 73.33121 31824 ft 472 kts 268°
2026-05-07 03:00 31.37172 73.25556 31824 ft 471 kts 268°
2026-05-07 03:00 31.36359 73.17926 31823 ft 468 kts 268°
2026-05-07 03:01 31.35549 73.10348 31812 ft 470 kts 268°
2026-05-07 03:01 31.34731 73.02755 31805 ft 470 kts 268°
2026-05-07 03:02 31.33909 72.95152 31800 ft 469 kts 268°
2026-05-07 03:02 31.33090 72.87620 31801 ft 471 kts 268°
2026-05-07 03:03 31.32256 72.79999 31809 ft 470 kts 268°
2026-05-07 03:03 31.31427 72.72461 31816 ft 467 kts 268°
2026-05-07 03:04 31.30587 72.64867 31814 ft 468 kts 268°
2026-05-07 03:04 31.29747 72.57308 31819 ft 470 kts 268°
2026-05-07 03:05 31.28905 72.49777 31815 ft 467 kts 268°
2026-05-07 03:05 31.28054 72.42204 31813 ft 467 kts 268°
2026-05-07 03:06 31.27430 72.34712 31803 ft 461 kts 275°
2026-05-07 03:06 31.28380 72.27385 31808 ft 454 kts 290°
2026-05-07 03:07 31.30924 72.20724 31806 ft 448 kts 301°
2026-05-07 03:07 31.33915 72.14308 31804 ft 448 kts 301°
2026-05-07 03:08 31.36898 72.07891 31806 ft 449 kts 301°
2026-05-07 03:08 31.39872 72.01471 31807 ft 448 kts 301°
2026-05-07 03:09 31.42852 71.95023 31807 ft 449 kts 301°
2026-05-07 03:09 31.45812 71.88606 31804 ft 448 kts 301°
2026-05-07 03:10 31.48777 71.82164 31808 ft 448 kts 301°
2026-05-07 03:10 31.51733 71.75732 31805 ft 449 kts 301°
2026-05-07 03:11 31.54688 71.69288 31804 ft 449 kts 301°
2026-05-07 03:11 31.57642 71.62837 31804 ft 448 kts 301°
2026-05-07 03:12 31.60622 71.56314 31803 ft 449 kts 301°
2026-05-07 03:12 31.63565 71.49857 31802 ft 448 kts 301°
2026-05-07 03:13 31.66509 71.43386 31810 ft 449 kts 301°
2026-05-07 03:13 31.69439 71.36935 31806 ft 448 kts 301°
2026-05-07 03:14 31.72379 71.30450 31814 ft 451 kts 300°
2026-05-07 03:15 31.76793 71.20693 31810 ft 449 kts 300°
2026-05-07 03:15 31.79730 71.14188 31816 ft 449 kts 300°
2026-05-07 03:16 31.82661 71.07685 31815 ft 450 kts 300°
2026-05-07 03:16 31.85581 71.01193 31807 ft 450 kts 300°
2026-05-07 03:17 31.88829 70.94931 31812 ft 446 kts 310°
2026-05-07 03:17 31.93338 70.89892 31805 ft 446 kts 324°
2026-05-07 03:18 31.98835 70.86516 31800 ft 448 kts 339°
2026-05-07 03:18 32.04928 70.84655 31810 ft 451 kts 345°
2026-05-07 03:19 32.11008 70.82983 31821 ft 450 kts 345°
2026-05-07 03:19 32.17131 70.81281 31838 ft 450 kts 345°
2026-05-07 03:20 32.23241 70.79572 31842 ft 450 kts 345°
2026-05-07 03:20 32.29345 70.77856 31848 ft 450 kts 345°
2026-05-07 03:21 32.35448 70.76137 31862 ft 449 kts 345°
2026-05-07 03:21 32.41572 70.74408 31868 ft 450 kts 345°
2026-05-07 03:22 32.47678 70.72681 31872 ft 450 kts 345°
2026-05-07 03:22 32.53796 70.70948 31875 ft 450 kts 345°
2026-05-07 03:23 32.59865 70.69226 31878 ft 448 kts 345°
2026-05-07 03:23 32.65979 70.67489 31879 ft 450 kts 345°
2026-05-07 03:24 32.72095 70.65749 31879 ft 451 kts 345°
2026-05-07 03:24 32.78221 70.64003 31878 ft 450 kts 345°
2026-05-07 03:25 32.84306 70.62267 31877 ft 450 kts 345°
2026-05-07 03:25 32.90444 70.60513 31893 ft 449 kts 345°
2026-05-07 03:26 32.96635 70.59319 31906 ft 453 kts 353°
2026-05-07 03:26 33.02934 70.58721 31908 ft 453 kts 353°
2026-05-07 03:27 33.09209 70.58125 31944 ft 451 kts 353°
2026-05-07 03:27 33.15452 70.57528 31974 ft 451 kts 353°
2026-05-07 03:28 33.21745 70.56924 31983 ft 451 kts 353°
2026-05-07 03:28 33.28047 70.56317 32014 ft 452 kts 353°
2026-05-07 03:29 33.34336 70.55710 32048 ft 452 kts 353°
2026-05-07 03:29 33.40613 70.55103 32060 ft 452 kts 353°
2026-05-07 03:30 33.46896 70.54494 32086 ft 452 kts 353°
2026-05-07 03:30 33.53201 70.53883 32109 ft 452 kts 353°
2026-05-07 03:31 33.59496 70.53271 32158 ft 451 kts 353°
2026-05-07 03:31 33.65770 70.52661 32192 ft 452 kts 353°
2026-05-07 03:32 33.72065 70.52048 32219 ft 451 kts 353°
2026-05-07 03:32 33.78354 70.51434 32257 ft 451 kts 353°
2026-05-07 03:33 33.84630 70.50517 32298 ft 451 kts 345°
2026-05-07 03:33 33.90447 70.47760 32332 ft 448 kts 330°
2026-05-07 03:34 33.95373 70.43143 32365 ft 449 kts 314°
2026-05-07 03:34 33.99027 70.37043 32413 ft 452 kts 301°
2026-05-07 03:35 34.01978 70.30375 32423 ft 453 kts 300°
2026-05-07 03:35 34.04922 70.23679 32446 ft 453 kts 299°
2026-05-07 03:36 34.07872 70.16960 32432 ft 454 kts 299°
2026-05-07 03:36 34.10815 70.10249 32434 ft 452 kts 299°
2026-05-07 03:37 34.13747 70.03551 32455 ft 455 kts 299°
2026-05-07 03:37 34.16717 69.96753 32454 ft 454 kts 299°
2026-05-07 03:38 34.19649 69.89995 32430 ft 453 kts 299°
2026-05-07 03:38 34.22546 69.83273 32401 ft 454 kts 299°
2026-05-07 03:39 34.25458 69.76503 32390 ft 453 kts 299°
2026-05-07 03:39 34.28385 69.69689 32394 ft 453 kts 299°
2026-05-07 03:40 34.31277 69.62942 32414 ft 453 kts 299°
2026-05-07 03:40 34.34164 69.56194 32413 ft 452 kts 299°
2026-05-07 03:41 34.37073 69.49382 32422 ft 451 kts 299°
2026-05-07 03:41 34.39964 69.42600 32411 ft 452 kts 298°
2026-05-07 03:42 34.42841 69.35834 32382 ft 451 kts 299°
2026-05-07 03:42 34.45641 69.29239 32360 ft 455 kts 298°
2026-05-07 03:43 34.48485 69.22525 32353 ft 452 kts 298°
2026-05-07 03:43 34.52134 69.16219 32342 ft 452 kts 313°
2026-05-07 03:44 34.57025 69.11511 32349 ft 452 kts 329°
2026-05-07 03:44 34.62608 69.07888 32359 ft 453 kts 331°
2026-05-07 03:45 34.68189 69.04307 32370 ft 452 kts 330°
2026-05-07 03:45 34.73761 69.00713 32389 ft 453 kts 330°
2026-05-07 03:46 34.79329 68.97109 32403 ft 453 kts 330°
2026-05-07 03:46 34.84934 68.93472 32427 ft 453 kts 330°
2026-05-07 03:47 34.90520 68.89841 32433 ft 455 kts 330°
2026-05-07 03:47 34.96109 68.86200 32435 ft 453 kts 330°
2026-05-07 03:48 35.01717 68.82541 32423 ft 456 kts 330°
2026-05-07 03:48 35.07302 68.78892 32463 ft 454 kts 330°
2026-05-07 03:49 35.12821 68.75279 32495 ft 454 kts 330°
2026-05-07 03:49 35.18405 68.71618 32508 ft 453 kts 330°
2026-05-07 03:50 35.23991 68.67950 32544 ft 456 kts 330°
2026-05-07 03:50 35.29590 68.64269 32547 ft 455 kts 330°
2026-05-07 03:51 35.35181 68.60586 32504 ft 456 kts 330°
2026-05-07 03:51 35.40757 68.56907 32470 ft 455 kts 330°
2026-05-07 03:52 35.46382 68.53190 32455 ft 456 kts 330°
2026-05-07 03:52 35.51966 68.49494 32442 ft 454 kts 330°
2026-05-07 03:53 35.57546 68.45795 32420 ft 455 kts 330°
2026-05-07 03:53 35.63128 68.42081 32418 ft 457 kts 330°
2026-05-07 03:54 35.68732 68.38328 32399 ft 456 kts 330°
2026-05-07 03:54 35.74279 68.34609 32429 ft 457 kts 330°
2026-05-07 03:55 35.79824 68.30885 32426 ft 456 kts 330°
2026-05-07 03:55 35.85410 68.27128 32450 ft 457 kts 330°
2026-05-07 03:56 35.91011 68.23355 32421 ft 455 kts 330°
2026-05-07 03:56 35.96623 68.19568 32375 ft 457 kts 330°
2026-05-07 03:57 36.02187 68.15809 32340 ft 459 kts 330°
2026-05-07 03:57 36.07812 68.12000 32331 ft 459 kts 330°
2026-05-07 03:58 36.13298 68.08282 32321 ft 458 kts 330°
2026-05-07 03:58 36.18880 68.04491 32281 ft 459 kts 330°
2026-05-07 03:59 36.24515 68.00658 32233 ft 458 kts 330°
2026-05-07 03:59 36.30113 67.96844 32227 ft 458 kts 330°
2026-05-07 04:00 36.35709 67.93025 32210 ft 459 kts 330°
2026-05-07 04:00 36.41293 67.89208 32213 ft 461 kts 330°
2026-05-07 04:01 36.46897 67.85371 32178 ft 457 kts 330°
2026-05-07 04:01 36.52519 67.81515 32161 ft 458 kts 330°
2026-05-07 04:02 36.58106 67.77676 32145 ft 459 kts 330°
2026-05-07 04:02 36.63691 67.73833 32095 ft 458 kts 330°
2026-05-07 04:03 36.69310 67.69960 32040 ft 460 kts 330°
2026-05-07 04:03 36.74919 67.66096 32008 ft 459 kts 330°
2026-05-07 04:04 36.80515 67.62249 31989 ft 459 kts 330°
2026-05-07 04:04 36.86160 67.58363 31981 ft 459 kts 330°
2026-05-07 04:05 36.91764 67.54496 31972 ft 460 kts 330°
2026-05-07 04:05 36.97369 67.50622 31958 ft 460 kts 330°
2026-05-07 04:06 37.02953 67.46757 31943 ft 459 kts 330°
2026-05-07 04:06 37.08573 67.42859 31948 ft 460 kts 330°
2026-05-07 04:07 37.14025 67.39072 31960 ft 459 kts 330°
2026-05-07 04:07 37.19635 67.35168 31955 ft 459 kts 330°
2026-05-07 04:08 37.25075 67.31168 31962 ft 459 kts 327°
2026-05-07 04:08 37.30492 67.26996 31982 ft 458 kts 327°
2026-05-07 04:09 37.35960 67.22791 31974 ft 458 kts 327°
2026-05-07 04:09 37.41405 67.18607 31990 ft 458 kts 327°
2026-05-07 04:10 37.46859 67.14414 31992 ft 457 kts 327°
2026-05-07 04:10 37.52288 67.10232 31994 ft 458 kts 327°
2026-05-07 04:11 37.57729 67.06038 32008 ft 457 kts 327°
2026-05-07 04:11 37.63142 67.01858 32022 ft 457 kts 327°
2026-05-07 04:12 37.68588 66.97645 32045 ft 457 kts 327°
2026-05-07 04:12 37.74037 66.93423 32066 ft 458 kts 327°
2026-05-07 04:13 37.79462 66.89212 32091 ft 458 kts 327°
2026-05-07 04:13 37.84888 66.84993 32115 ft 458 kts 327°
2026-05-07 04:14 37.90311 66.80770 32167 ft 457 kts 327°
2026-05-07 04:14 37.95758 66.76519 32211 ft 457 kts 327°
2026-05-07 04:15 38.01187 66.72276 32233 ft 457 kts 327°
2026-05-07 04:15 38.06570 66.68024 32225 ft 458 kts 326°
2026-05-07 04:16 38.11923 66.63776 32198 ft 458 kts 327°
2026-05-07 04:16 38.17279 66.59520 32180 ft 457 kts 326°
2026-05-07 04:17 38.22677 66.55224 32159 ft 457 kts 326°
2026-05-07 04:17 38.28077 66.50919 32131 ft 457 kts 326°
2026-05-07 04:18 38.33494 66.46592 32102 ft 458 kts 326°
2026-05-07 04:18 38.38905 66.42263 32089 ft 458 kts 326°
2026-05-07 04:19 38.44311 66.37930 32060 ft 458 kts 326°
2026-05-07 04:19 38.49678 66.33621 32059 ft 458 kts 326°
2026-05-07 04:20 38.55058 66.29294 32038 ft 458 kts 326°
2026-05-07 04:20 38.60475 66.24929 32012 ft 459 kts 325°
2026-05-07 04:21 38.68628 66.18460 31998 ft 459 kts 326°
2026-05-07 04:21 38.74093 66.14146 31983 ft 460 kts 326°
2026-05-07 04:22 38.79577 66.09808 31979 ft 462 kts 326°
2026-05-07 04:22 38.85053 66.05465 31988 ft 463 kts 326°
2026-05-07 04:23 38.90533 66.01111 31985 ft 462 kts 326°
2026-05-07 04:23 38.96031 65.96734 31981 ft 462 kts 326°
2026-05-07 04:24 39.01539 65.92340 31979 ft 463 kts 326°
2026-05-07 04:24 39.06985 65.87988 31975 ft 463 kts 326°
2026-05-07 04:25 39.12404 65.83649 31973 ft 463 kts 326°
2026-05-07 04:25 39.17892 65.79247 31968 ft 464 kts 326°
2026-05-07 04:26 39.23355 65.74857 31965 ft 464 kts 326°
2026-05-07 04:26 39.28830 65.70449 31957 ft 465 kts 326°
2026-05-07 04:27 39.34370 65.65981 31954 ft 465 kts 326°
2026-05-07 04:27 39.39839 65.61560 31946 ft 465 kts 326°
2026-05-07 04:28 39.45348 65.57100 31943 ft 466 kts 326°
2026-05-07 04:28 39.50843 65.52641 31939 ft 466 kts 325°
2026-05-07 04:29 39.56367 65.48152 31939 ft 466 kts 325°
2026-05-07 04:29 39.61877 65.43665 31935 ft 466 kts 325°
2026-05-07 04:30 39.67352 65.39199 31938 ft 466 kts 325°
2026-05-07 04:30 39.72865 65.34692 31938 ft 467 kts 324°
2026-05-07 04:31 39.78331 65.30216 31948 ft 467 kts 324°
2026-05-07 04:31 39.83831 65.25703 31955 ft 467 kts 324°
2026-05-07 04:32 39.89331 65.21182 31959 ft 468 kts 324°
2026-05-07 04:32 39.94834 65.16649 31962 ft 468 kts 324°
2026-05-07 04:33 40.00353 65.12093 31959 ft 469 kts 324°
2026-05-07 04:33 40.05891 65.07514 31957 ft 469 kts 324°
2026-05-07 04:34 40.11342 65.02998 31951 ft 469 kts 324°
2026-05-07 04:34 40.16851 64.98425 31950 ft 470 kts 324°
2026-05-07 04:35 40.22385 64.93823 31942 ft 469 kts 324°
2026-05-07 04:35 40.27861 64.89259 31941 ft 469 kts 324°
2026-05-07 04:36 40.33380 64.84650 31936 ft 470 kts 324°
2026-05-07 04:36 40.38909 64.80026 31934 ft 469 kts 324°
2026-05-07 04:37 40.44407 64.75417 31930 ft 469 kts 324°
2026-05-07 04:37 40.49902 64.70802 31932 ft 468 kts 324°
2026-05-07 04:38 40.55405 64.66170 31929 ft 468 kts 324°
2026-05-07 04:38 40.60880 64.61553 31925 ft 468 kts 324°
2026-05-07 04:39 40.66401 64.56888 31924 ft 468 kts 324°
2026-05-07 04:39 40.71886 64.52244 31926 ft 469 kts 324°
2026-05-07 04:40 40.77352 64.47607 31926 ft 469 kts 323°
2026-05-07 04:40 40.82840 64.42943 31923 ft 469 kts 323°
2026-05-07 04:41 40.88329 64.38268 31917 ft 469 kts 324°
2026-05-07 04:41 40.93770 64.33625 31921 ft 468 kts 323°
2026-05-07 04:42 40.99234 64.28953 31920 ft 468 kts 323°
2026-05-07 04:42 41.04725 64.24248 31921 ft 468 kts 323°
2026-05-07 04:43 41.10183 64.19562 31919 ft 468 kts 323°
2026-05-07 04:43 41.15611 64.14893 31920 ft 469 kts 322°
2026-05-07 04:44 41.21078 64.10181 31925 ft 467 kts 322°
2026-05-07 04:44 41.26553 64.05451 31931 ft 467 kts 322°
2026-05-07 04:45 41.31977 64.00756 31933 ft 467 kts 322°
2026-05-07 04:45 41.37420 63.96036 31931 ft 468 kts 322°
2026-05-07 04:46 41.42868 63.91304 31926 ft 468 kts 322°
2026-05-07 04:46 41.48352 63.86536 31922 ft 468 kts 322°
2026-05-07 04:47 41.53822 63.81769 31916 ft 468 kts 322°
2026-05-07 04:47 41.59264 63.77017 31909 ft 468 kts 322°
2026-05-07 04:48 41.64740 63.72225 31901 ft 467 kts 322°
2026-05-07 04:48 41.70179 63.67456 31896 ft 467 kts 322°
2026-05-07 04:49 41.75659 63.62641 31886 ft 468 kts 322°
2026-05-07 04:49 41.81084 63.57864 31885 ft 469 kts 322°
2026-05-07 04:50 41.86535 63.53054 31886 ft 469 kts 322°
2026-05-07 04:50 41.92015 63.48209 31877 ft 469 kts 322°
2026-05-07 04:51 41.97451 63.43393 31868 ft 470 kts 322°
2026-05-07 04:51 42.02935 63.38525 31870 ft 469 kts 322°
2026-05-07 04:52 42.08349 63.33707 31872 ft 469 kts 321°
2026-05-07 04:52 42.13813 63.28835 31872 ft 469 kts 321°
2026-05-07 04:53 42.19233 63.23993 31872 ft 469 kts 321°
2026-05-07 04:53 42.24683 63.19114 31874 ft 469 kts 321°
2026-05-07 04:54 42.30152 63.14206 31878 ft 470 kts 321°
2026-05-07 04:54 42.35586 63.09321 31877 ft 469 kts 321°
2026-05-07 04:55 42.41046 63.04401 31879 ft 470 kts 321°
2026-05-07 04:55 42.46491 62.99485 31886 ft 469 kts 321°
2026-05-07 04:56 42.51895 62.94594 31884 ft 471 kts 321°
2026-05-07 04:56 42.57359 62.89640 31879 ft 468 kts 321°
2026-05-07 04:57 42.62776 62.84716 31874 ft 470 kts 321°
2026-05-07 04:57 42.68226 62.79752 31868 ft 470 kts 321°
2026-05-07 04:58 42.73671 62.74783 31862 ft 470 kts 320°
2026-05-07 04:58 42.79096 62.69821 31857 ft 469 kts 321°
2026-05-07 04:59 42.84498 62.64870 31851 ft 470 kts 320°
2026-05-07 04:59 42.89930 62.59881 31850 ft 470 kts 320°
2026-05-07 05:00 42.95331 62.54908 31847 ft 471 kts 320°
2026-05-07 05:00 43.00767 62.49894 31849 ft 469 kts 320°
2026-05-07 05:01 43.06175 62.44894 31852 ft 469 kts 320°
2026-05-07 05:01 43.11520 62.39941 31850 ft 469 kts 320°
2026-05-07 05:02 43.16948 62.34901 31849 ft 469 kts 319°
2026-05-07 05:02 43.22306 62.29913 31857 ft 470 kts 319°
2026-05-07 05:03 43.27724 62.24861 31854 ft 469 kts 319°
2026-05-07 05:03 43.33118 62.19820 31854 ft 469 kts 319°
2026-05-07 05:04 43.38557 62.14725 31858 ft 470 kts 319°
2026-05-07 05:04 43.43952 62.09661 31856 ft 470 kts 319°
2026-05-07 05:05 43.49773 62.05322 31862 ft 480 kts 329°
2026-05-07 05:05 43.55824 62.01438 31862 ft 477 kts 329°
2026-05-07 05:06 43.61827 61.97570 31869 ft 478 kts 329°
2026-05-07 05:06 43.67884 61.93651 31870 ft 479 kts 329°
2026-05-07 05:07 43.73906 61.89745 31860 ft 478 kts 329°
2026-05-07 05:07 43.79953 61.85810 31856 ft 478 kts 329°
2026-05-07 05:08 43.85991 61.81871 31859 ft 480 kts 329°
2026-05-07 05:08 43.92012 61.77935 31866 ft 479 kts 329°
2026-05-07 05:09 43.98037 61.73986 31864 ft 479 kts 329°
2026-05-07 05:09 44.04082 61.70015 31867 ft 479 kts 328°
2026-05-07 05:10 44.10109 61.66048 31872 ft 479 kts 328°
2026-05-07 05:10 44.16079 61.62108 31868 ft 480 kts 329°
2026-05-07 05:11 44.22107 61.58129 31873 ft 479 kts 329°
2026-05-07 05:11 44.28166 61.54121 31873 ft 481 kts 329°
2026-05-07 05:12 44.34195 61.50123 31876 ft 481 kts 329°
2026-05-07 05:12 44.40250 61.46099 31876 ft 481 kts 329°
2026-05-07 05:13 44.46283 61.42081 31880 ft 481 kts 328°
2026-05-07 05:13 44.52314 61.38054 31889 ft 481 kts 329°
2026-05-07 05:14 44.58340 61.34021 31895 ft 482 kts 328°
2026-05-07 05:14 44.64368 61.29979 31896 ft 479 kts 328°
2026-05-07 05:15 44.70377 61.25937 31900 ft 481 kts 328°
2026-05-07 05:15 44.76421 61.21865 31898 ft 480 kts 328°
2026-05-07 05:16 44.82423 61.17810 31893 ft 481 kts 328°
2026-05-07 05:16 44.88454 61.13728 31892 ft 480 kts 328°
2026-05-07 05:17 44.94529 61.09605 31894 ft 481 kts 328°
2026-05-07 05:17 45.00557 61.05505 31894 ft 481 kts 328°
2026-05-07 05:18 45.06599 61.01384 31897 ft 483 kts 328°
2026-05-07 05:18 45.12531 60.97331 31887 ft 481 kts 327°
2026-05-07 05:19 45.18554 60.93205 31887 ft 482 kts 327°
2026-05-07 05:19 45.24625 60.89036 31885 ft 483 kts 327°
2026-05-07 05:20 45.30640 60.84897 31888 ft 482 kts 327°
2026-05-07 05:20 45.36686 60.80724 31890 ft 484 kts 328°
2026-05-07 05:21 45.45071 60.73191 31894 ft 468 kts 312°
2026-05-07 05:22 45.49931 60.67008 31890 ft 468 kts 311°
2026-05-07 05:22 45.54777 60.60804 31890 ft 468 kts 311°
2026-05-07 05:23 45.59615 60.54592 31892 ft 467 kts 311°
2026-05-07 05:23 45.64452 60.48361 31896 ft 469 kts 311°
2026-05-07 05:24 45.69297 60.42104 31899 ft 470 kts 311°
2026-05-07 05:24 45.74166 60.35801 31906 ft 470 kts 311°
2026-05-07 05:25 45.78955 60.29588 31916 ft 468 kts 310°
2026-05-07 05:25 45.83783 60.23304 31922 ft 470 kts 311°
2026-05-07 05:26 45.88617 60.17000 31920 ft 470 kts 311°
2026-05-07 05:26 45.93465 60.10662 31917 ft 470 kts 311°
2026-05-07 05:27 45.98309 60.04312 31918 ft 471 kts 311°
2026-05-07 05:27 46.03138 59.97967 31916 ft 472 kts 311°
2026-05-07 05:28 46.08043 59.91501 31935 ft 486 kts 311°
2026-05-07 05:28 46.13051 59.84883 32297 ft 495 kts 311°
2026-05-07 05:28 46.15569 59.81556 32815 ft 492 kts 311°
2026-05-07 05:29 46.18084 59.78228 33360 ft 488 kts 310°
2026-05-07 05:29 46.20585 59.74913 33784 ft 487 kts 310°
2026-05-07 05:29 46.23084 59.71593 34141 ft 487 kts 310°
2026-05-07 05:29 46.25494 59.68218 34444 ft 485 kts 308°
2026-05-07 05:30 46.27885 59.64774 34785 ft 484 kts 308°
2026-05-07 05:30 46.30268 59.61340 35081 ft 483 kts 308°
2026-05-07 05:30 46.32654 59.57899 35305 ft 484 kts 309°
2026-05-07 05:30 46.35018 59.54492 35553 ft 484 kts 309°
2026-05-07 05:31 46.37423 59.51025 35815 ft 484 kts 309°
2026-05-07 05:31 46.42199 59.44130 35899 ft 486 kts 309°
2026-05-07 05:32 46.46948 59.37266 35897 ft 484 kts 309°
2026-05-07 05:32 46.51691 59.30392 35905 ft 485 kts 308°
2026-05-07 05:33 46.56453 59.23476 35903 ft 484 kts 308°
2026-05-07 05:33 46.61215 59.16540 35907 ft 486 kts 308°
2026-05-07 05:34 46.65989 59.09570 35907 ft 486 kts 308°
2026-05-07 05:34 46.70748 59.02603 35909 ft 488 kts 308°
2026-05-07 05:35 46.75540 58.95570 35905 ft 489 kts 308°
2026-05-07 05:35 46.80345 58.88499 35907 ft 488 kts 309°
2026-05-07 05:36 46.85104 58.81477 35902 ft 489 kts 309°
2026-05-07 05:36 46.89904 58.74375 35904 ft 490 kts 309°
2026-05-07 05:37 46.94689 58.67277 35905 ft 491 kts 309°
2026-05-07 05:37 46.99464 58.60173 35908 ft 490 kts 309°
2026-05-07 05:38 47.04250 58.53037 35908 ft 490 kts 309°
2026-05-07 05:38 47.09031 58.45885 35902 ft 490 kts 309°
2026-05-07 05:39 47.13734 58.38830 35890 ft 492 kts 309°
2026-05-07 05:39 47.18450 58.31740 35901 ft 492 kts 308°
2026-05-07 05:40 47.23234 58.24526 35898 ft 492 kts 308°
2026-05-07 05:40 47.28017 58.17294 35896 ft 493 kts 308°
2026-05-07 05:41 47.32777 58.10074 35908 ft 494 kts 308°
2026-05-07 05:41 47.37577 58.02771 35919 ft 493 kts 308°
2026-05-07 05:42 47.42344 57.95499 35913 ft 495 kts 309°
2026-05-07 05:42 47.47144 57.88156 35911 ft 495 kts 309°
2026-05-07 05:43 47.51923 57.80824 35913 ft 495 kts 309°
2026-05-07 05:43 47.56697 57.73481 35914 ft 496 kts 309°
2026-05-07 05:44 47.61488 57.66089 35913 ft 497 kts 309°
2026-05-07 05:44 47.66275 57.58683 35927 ft 497 kts 309°
2026-05-07 05:45 47.71043 57.51284 35923 ft 498 kts 309°
2026-05-07 05:45 47.75810 57.43868 35912 ft 497 kts 309°
2026-05-07 05:46 47.80603 57.36388 35912 ft 498 kts 309°
2026-05-07 05:46 47.85275 57.29077 35918 ft 497 kts 308°
2026-05-07 05:47 47.90040 57.21599 35921 ft 498 kts 309°
2026-05-07 05:47 47.94802 57.14106 35920 ft 497 kts 309°
2026-05-07 05:48 47.99586 57.06554 35917 ft 500 kts 309°
2026-05-07 05:48 48.04266 56.99147 35918 ft 501 kts 309°
2026-05-07 05:49 48.09041 56.91566 35900 ft 501 kts 309°
2026-05-07 05:49 48.11358 56.87880 36049 ft 503 kts 309°
2026-05-07 05:49 48.13741 56.84084 35918 ft 500 kts 309°
2026-05-07 05:50 48.18481 56.76518 35898 ft 501 kts 309°
2026-05-07 05:50 48.23244 56.68891 35906 ft 500 kts 309°
2026-05-07 05:51 48.27961 56.61316 35894 ft 500 kts 309°
2026-05-07 05:51 48.32719 56.53654 35903 ft 501 kts 309°
2026-05-07 05:52 48.37463 56.45994 35904 ft 501 kts 309°
2026-05-07 05:52 48.42170 56.38381 35908 ft 501 kts 309°
2026-05-07 05:53 48.46890 56.30725 35891 ft 502 kts 309°
2026-05-07 05:53 48.51618 56.23032 35893 ft 504 kts 309°
2026-05-07 05:54 48.56348 56.15313 35894 ft 502 kts 309°
2026-05-07 05:54 48.61106 56.07521 35888 ft 504 kts 309°
2026-05-07 05:55 48.65844 55.99741 35885 ft 502 kts 309°
2026-05-07 05:55 48.70546 55.91997 35894 ft 502 kts 309°
2026-05-07 05:56 48.75294 55.84149 35887 ft 501 kts 309°
2026-05-07 05:56 48.79973 55.76394 35888 ft 502 kts 309°
2026-05-07 05:57 48.84694 55.68545 35888 ft 503 kts 310°
2026-05-07 05:57 48.89433 55.60636 35886 ft 505 kts 310°
2026-05-07 05:58 48.94115 55.52798 35899 ft 504 kts 310°
2026-05-07 05:58 48.98840 55.44862 35909 ft 504 kts 310°
2026-05-07 05:59 49.03499 55.37014 35900 ft 502 kts 310°
2026-05-07 05:59 49.08111 55.29223 35924 ft 502 kts 309°
2026-05-07 06:00 49.12723 55.21405 35902 ft 501 kts 310°
2026-05-07 06:00 49.17365 55.13516 35895 ft 502 kts 310°
2026-05-07 06:01 49.22047 55.05535 35911 ft 502 kts 310°
2026-05-07 06:01 49.26687 54.97603 35904 ft 504 kts 310°
2026-05-07 06:02 49.31343 54.89620 35893 ft 503 kts 310°
2026-05-07 06:02 49.36012 54.81590 35898 ft 504 kts 310°
2026-05-07 06:03 49.40691 54.73517 35900 ft 503 kts 310°
2026-05-07 06:03 49.45295 54.65547 35910 ft 502 kts 310°
2026-05-07 06:04 49.49937 54.57489 35891 ft 503 kts 311°
2026-05-07 06:04 49.54557 54.49443 35901 ft 503 kts 311°
2026-05-07 06:05 49.59193 54.41343 35892 ft 504 kts 311°
2026-05-07 06:05 49.63791 54.33288 35901 ft 503 kts 310°
2026-05-07 06:06 49.68383 54.25216 35897 ft 503 kts 310°
2026-05-07 06:06 49.72969 54.17129 35910 ft 503 kts 311°
2026-05-07 06:07 49.77566 54.08998 35901 ft 503 kts 311°
2026-05-07 06:07 49.82156 54.00853 35889 ft 503 kts 311°
2026-05-07 06:08 49.86777 53.92628 35889 ft 502 kts 311°
2026-05-07 06:08 49.91342 53.84483 35884 ft 503 kts 311°
2026-05-07 06:09 49.95929 53.76296 35911 ft 504 kts 311°
2026-05-07 06:09 50.00542 53.68037 35889 ft 503 kts 311°
2026-05-07 06:10 50.05092 53.59864 35895 ft 502 kts 311°
2026-05-07 06:10 50.09652 53.51646 35905 ft 501 kts 311°
2026-05-07 06:11 50.14056 53.43684 35876 ft 500 kts 311°
2026-05-07 06:11 50.18578 53.35483 35898 ft 499 kts 311°
2026-05-07 06:12 50.22980 53.27476 35885 ft 498 kts 311°
2026-05-07 06:12 50.27506 53.19216 35910 ft 500 kts 311°
2026-05-07 06:13 50.32017 53.10956 35879 ft 498 kts 311°
2026-05-07 06:13 50.36480 53.02759 35886 ft 499 kts 311°
2026-05-07 06:14 50.40969 52.94487 35878 ft 496 kts 311°
2026-05-07 06:14 50.45441 52.86223 35870 ft 496 kts 311°
2026-05-07 06:15 50.49888 52.77975 35863 ft 495 kts 311°
2026-05-07 06:15 50.54323 52.69725 35873 ft 495 kts 311°
2026-05-07 06:15 50.56538 52.65595 35587 ft 495 kts 311°
2026-05-07 06:16 50.58731 52.61498 35643 ft 493 kts 311°
2026-05-07 06:16 50.60952 52.57344 35837 ft 494 kts 311°
2026-05-07 06:16 50.63159 52.53209 35861 ft 497 kts 311°
2026-05-07 06:17 50.67591 52.44884 35856 ft 495 kts 311°
2026-05-07 06:17 50.72000 52.36577 35866 ft 495 kts 311°
2026-05-07 06:17 50.74140 52.32535 36065 ft 495 kts 310°
2026-05-07 06:18 50.76339 52.28375 35878 ft 491 kts 310°
2026-05-07 06:18 50.80673 52.20157 35862 ft 492 kts 310°
2026-05-07 06:19 50.85045 52.11839 35846 ft 492 kts 310°
2026-05-07 06:19 50.89417 52.03494 35849 ft 491 kts 310°
2026-05-07 06:20 50.93766 51.95167 35857 ft 491 kts 310°
2026-05-07 06:20 50.98109 51.86825 35865 ft 490 kts 310°
2026-05-07 06:21 51.02422 51.78512 35843 ft 489 kts 310°
2026-05-07 06:21 51.06739 51.70166 35744 ft 489 kts 310°
2026-05-07 06:22 51.11012 51.61878 35876 ft 493 kts 310°
2026-05-07 06:22 51.16790 51.48751 35870 ft 492 kts 301°
2026-05-07 06:23 51.20112 51.39277 35875 ft 492 kts 300°
2026-05-07 06:23 51.23286 51.30155 35870 ft 492 kts 300°
2026-05-07 06:24 51.26645 51.20454 35873 ft 492 kts 300°
2026-05-07 06:24 51.29937 51.10904 35871 ft 492 kts 300°
2026-05-07 06:25 51.33225 51.01325 35885 ft 491 kts 300°
2026-05-07 06:25 51.36492 50.91766 35894 ft 490 kts 300°
2026-05-07 06:26 51.39731 50.82256 35886 ft 489 kts 300°
2026-05-07 06:26 51.42983 50.72667 35881 ft 489 kts 300°
2026-05-07 06:27 51.46203 50.63139 35887 ft 490 kts 300°
2026-05-07 06:27 51.49447 50.53494 35891 ft 490 kts 299°
2026-05-07 06:28 51.52313 50.43651 35895 ft 490 kts 296°
2026-05-07 06:28 51.55107 50.33812 35897 ft 489 kts 296°
2026-05-07 06:29 51.57905 50.23982 35889 ft 489 kts 296°
2026-05-07 06:29 51.60722 50.14075 35890 ft 489 kts 296°
2026-05-07 06:30 51.63533 50.04164 35890 ft 489 kts 296°
2026-05-07 06:30 51.66342 49.94229 35884 ft 488 kts 296°
2026-05-07 06:31 51.69126 49.84345 35892 ft 486 kts 296°
2026-05-07 06:31 51.71917 49.74398 35889 ft 487 kts 296°
2026-05-07 06:32 51.74698 49.64445 35894 ft 488 kts 296°
2026-05-07 06:32 51.77474 49.54469 35906 ft 488 kts 296°
2026-05-07 06:33 51.80232 49.44514 35898 ft 488 kts 296°
2026-05-07 06:33 51.82978 49.34561 35893 ft 487 kts 295°
2026-05-07 06:34 51.85634 49.24894 35897 ft 487 kts 295°
2026-05-07 06:34 51.88370 49.14894 35898 ft 487 kts 295°
2026-05-07 06:35 51.91098 49.04878 35893 ft 487 kts 295°
2026-05-07 06:35 51.93829 48.94810 35892 ft 487 kts 295°
2026-05-07 06:36 51.96529 48.84812 35893 ft 488 kts 295°
2026-05-07 06:36 51.99221 48.74788 35894 ft 487 kts 295°
2026-05-07 06:37 52.01908 48.64722 35893 ft 487 kts 295°
2026-05-07 06:37 52.04567 48.54724 35897 ft 486 kts 295°
2026-05-07 06:38 52.07240 48.44624 35898 ft 486 kts 295°
2026-05-07 06:38 52.09893 48.34562 35897 ft 486 kts 294°
2026-05-07 06:39 52.12448 48.24822 35896 ft 486 kts 294°
2026-05-07 06:39 52.15034 48.15060 35895 ft 485 kts 295°
2026-05-07 06:40 52.17790 48.05057 35900 ft 486 kts 296°
2026-05-07 06:40 52.20533 47.95050 35905 ft 486 kts 295°
2026-05-07 06:41 52.23260 47.85047 35905 ft 485 kts 295°
2026-05-07 06:41 52.25993 47.74966 35916 ft 484 kts 295°
2026-05-07 06:42 52.28691 47.64969 35925 ft 484 kts 295°
2026-05-07 06:42 52.31401 47.54879 35927 ft 484 kts 295°
2026-05-07 06:43 52.34087 47.44840 35922 ft 483 kts 295°
2026-05-07 06:43 52.36765 47.34794 35926 ft 483 kts 295°
2026-05-07 06:44 52.39352 47.25048 35928 ft 484 kts 295°
2026-05-07 06:44 52.42038 47.14887 35934 ft 483 kts 295°
2026-05-07 06:45 52.44672 47.04874 35939 ft 482 kts 295°
2026-05-07 06:45 52.47321 46.94761 35948 ft 482 kts 295°
2026-05-07 06:46 52.49946 46.84695 35953 ft 482 kts 295°
2026-05-07 06:46 52.52559 46.74608 35953 ft 481 kts 295°
2026-05-07 06:47 52.55148 46.64557 35959 ft 481 kts 295°
2026-05-07 06:47 52.57740 46.54453 35953 ft 481 kts 295°
2026-05-07 06:48 52.60326 46.44322 35955 ft 481 kts 295°
2026-05-07 06:48 52.62884 46.34251 35948 ft 480 kts 293°
2026-05-07 06:49 52.65140 46.24291 35969 ft 480 kts 291°
2026-05-07 06:49 52.67425 46.14000 35955 ft 479 kts 291°
2026-05-07 06:50 52.69709 46.03709 35962 ft 479 kts 291°
2026-05-07 06:50 52.71997 45.93371 35956 ft 479 kts 291°
2026-05-07 06:51 52.74273 45.83055 35957 ft 479 kts 291°
2026-05-07 06:51 52.76534 45.72754 35950 ft 479 kts 291°
2026-05-07 06:52 52.78782 45.62472 35955 ft 478 kts 291°
2026-05-07 06:52 52.81028 45.52147 35956 ft 479 kts 291°
2026-05-07 06:53 52.83261 45.41814 35965 ft 480 kts 291°
2026-05-07 06:53 52.85439 45.31678 35965 ft 479 kts 290°
2026-05-07 06:54 52.87657 45.21301 35966 ft 479 kts 290°
2026-05-07 06:54 52.89853 45.10978 35968 ft 478 kts 290°
2026-05-07 06:55 52.92045 45.00619 35967 ft 477 kts 290°
2026-05-07 06:55 52.94286 44.90359 35968 ft 478 kts 292°
2026-05-07 06:56 52.96606 44.80061 35975 ft 478 kts 291°
2026-05-07 06:56 52.98900 44.69812 35972 ft 478 kts 291°
2026-05-07 06:57 53.01194 44.59491 35972 ft 479 kts 291°
2026-05-07 06:57 53.03491 44.49099 35978 ft 478 kts 291°
2026-05-07 06:58 53.05761 44.38771 35974 ft 477 kts 291°
2026-05-07 06:58 53.07948 44.28755 35974 ft 477 kts 290°
2026-05-07 06:59 53.10192 44.18424 35976 ft 477 kts 290°
2026-05-07 06:59 53.12329 44.08536 35987 ft 478 kts 290°
2026-05-07 07:00 53.14556 43.98181 35994 ft 479 kts 290°
2026-05-07 07:00 53.16771 43.87830 35992 ft 478 kts 290°
2026-05-07 07:01 53.19002 43.77349 35991 ft 477 kts 290°
2026-05-07 07:01 53.21193 43.67007 35993 ft 477 kts 290°
2026-05-07 07:02 53.23373 43.56660 35994 ft 476 kts 290°
2026-05-07 07:02 53.25538 43.46332 35988 ft 476 kts 290°
2026-05-07 07:03 53.27692 43.36004 35989 ft 477 kts 290°
2026-05-07 07:04 53.31839 43.15973 35982 ft 476 kts 289°
2026-05-07 07:04 53.33988 43.05510 35988 ft 476 kts 289°
2026-05-07 07:05 53.36133 42.95011 35982 ft 476 kts 289°
2026-05-07 07:05 53.38253 42.84578 35992 ft 475 kts 289°
2026-05-07 07:06 53.40391 42.74005 35981 ft 475 kts 289°
2026-05-07 07:06 53.42502 42.63508 35983 ft 476 kts 289°
2026-05-07 07:07 53.44591 42.53059 35980 ft 476 kts 289°
2026-05-07 07:07 53.46623 42.42468 35990 ft 475 kts 287°
2026-05-07 07:08 53.48459 42.31958 35984 ft 475 kts 286°
2026-05-07 07:08 53.50295 42.21423 35986 ft 475 kts 286°
2026-05-07 07:09 53.52148 42.10771 35986 ft 473 kts 285°
2026-05-07 07:09 53.53986 42.00149 35983 ft 473 kts 286°
2026-05-07 07:10 53.55815 41.89532 35984 ft 472 kts 286°
2026-05-07 07:10 53.57629 41.78944 35981 ft 472 kts 286°
2026-05-07 07:11 53.59442 41.68296 35982 ft 471 kts 286°
2026-05-07 07:11 53.61227 41.57752 35985 ft 471 kts 286°
2026-05-07 07:12 53.63010 41.47161 35983 ft 471 kts 286°
2026-05-07 07:12 53.64787 41.36542 35983 ft 471 kts 286°
2026-05-07 07:13 53.66531 41.26052 35985 ft 471 kts 285°
2026-05-07 07:13 53.68262 41.15576 35986 ft 470 kts 285°
2026-05-07 07:14 53.70004 41.04971 35986 ft 471 kts 285°
2026-05-07 07:14 53.72378 40.94673 35987 ft 471 kts 294°
2026-05-07 07:15 53.75008 40.84578 35983 ft 469 kts 294°
2026-05-07 07:15 53.77610 40.74520 35988 ft 470 kts 294°
2026-05-07 07:16 53.80223 40.64349 35985 ft 470 kts 294°
2026-05-07 07:16 53.82822 40.54180 35982 ft 470 kts 294°
2026-05-07 07:17 53.85412 40.43990 35986 ft 470 kts 294°
2026-05-07 07:17 53.87965 40.33901 35988 ft 469 kts 293°
2026-05-07 07:18 53.90481 40.23957 35985 ft 468 kts 293°
2026-05-07 07:18 53.93041 40.13794 35980 ft 468 kts 293°
2026-05-07 07:19 53.95583 40.03658 35968 ft 467 kts 293°
2026-05-07 07:19 53.98128 39.93458 35964 ft 467 kts 293°
2026-05-07 07:20 54.00637 39.83358 35965 ft 468 kts 293°
2026-05-07 07:20 54.03157 39.73168 35962 ft 467 kts 293°
2026-05-07 07:21 54.05661 39.62994 35867 ft 461 kts 292°
2026-05-07 07:21 54.06895 39.57963 35186 ft 462 kts 292°
2026-05-07 07:21 54.08127 39.52927 34120 ft 470 kts 293°
2026-05-07 07:22 54.09395 39.47731 33125 ft 473 kts 293°
2026-05-07 07:22 54.10653 39.42566 32222 ft 474 kts 293°
2026-05-07 07:22 54.11914 39.37376 31331 ft 475 kts 293°
2026-05-07 07:22 54.13140 39.32319 30521 ft 475 kts 292°
2026-05-07 07:23 54.14397 39.27122 30048 ft 466 kts 292°
2026-05-07 07:23 54.15617 39.22063 29580 ft 459 kts 292°
2026-05-07 07:23 54.16821 39.17063 29061 ft 453 kts 292°
2026-05-07 07:23 54.18006 39.12130 28551 ft 447 kts 292°
2026-05-07 07:24 54.19058 39.07742 28425 ft 435 kts 291°
2026-05-07 07:24 54.20128 39.03267 28365 ft 420 kts 291°
2026-05-07 07:24 54.21175 38.98898 28239 ft 408 kts 293°
2026-05-07 07:24 54.22445 38.94814 28090 ft 397 kts 302°
2026-05-07 07:25 54.25641 38.88701 27804 ft 381 kts 320°
2026-05-07 07:25 54.27850 38.86092 27620 ft 397 kts 329°
2026-05-07 07:25 54.30320 38.83888 27415 ft 400 kts 332°
2026-05-07 07:26 54.32822 38.81744 27210 ft 398 kts 332°
2026-05-07 07:26 54.35300 38.79625 27016 ft 396 kts 332°
2026-05-07 07:26 54.37750 38.77528 26826 ft 395 kts 332°
2026-05-07 07:26 54.40215 38.75416 26633 ft 394 kts 332°
2026-05-07 07:27 54.42672 38.73309 26438 ft 393 kts 332°
2026-05-07 07:27 54.45126 38.71201 26242 ft 391 kts 332°
2026-05-07 07:27 54.47557 38.69111 26050 ft 390 kts 332°
2026-05-07 07:27 54.49985 38.67009 25947 ft 390 kts 329°
2026-05-07 07:28 54.52280 38.64451 25946 ft 400 kts 322°
2026-05-07 07:28 54.54563 38.61545 25951 ft 413 kts 322°
2026-05-07 07:28 54.56922 38.58522 25957 ft 426 kts 322°
2026-05-07 07:28 54.59339 38.55419 25961 ft 438 kts 322°
2026-05-07 07:29 54.61805 38.52249 25962 ft 443 kts 322°
2026-05-07 07:29 54.64262 38.49088 25960 ft 442 kts 322°
2026-05-07 07:29 54.66730 38.45908 25958 ft 443 kts 322°
2026-05-07 07:29 54.69207 38.42711 25956 ft 442 kts 322°
2026-05-07 07:30 54.71690 38.39502 25953 ft 442 kts 321°
2026-05-07 07:30 54.74135 38.36336 25952 ft 442 kts 322°
2026-05-07 07:30 54.76626 38.33106 25953 ft 442 kts 321°
2026-05-07 07:30 54.79126 38.29859 25954 ft 442 kts 321°
2026-05-07 07:31 54.81595 38.26648 25957 ft 442 kts 321°
2026-05-07 07:31 54.84050 38.23449 25959 ft 442 kts 321°
2026-05-07 07:31 54.86505 38.20245 25960 ft 442 kts 321°
2026-05-07 07:31 54.88948 38.17053 25960 ft 441 kts 321°
2026-05-07 07:32 54.91408 38.13833 25767 ft 443 kts 321°
2026-05-07 07:32 54.93869 38.10607 25294 ft 441 kts 321°
2026-05-07 07:32 54.96316 38.07394 24720 ft 437 kts 320°
2026-05-07 07:32 54.98733 38.04217 24166 ft 432 kts 320°
2026-05-07 07:33 55.01090 38.01115 23641 ft 427 kts 320°
2026-05-07 07:33 55.03450 37.98003 23103 ft 422 kts 320°
2026-05-07 07:33 55.05790 37.94912 22569 ft 417 kts 320°
2026-05-07 07:33 55.08092 37.91867 22037 ft 412 kts 320°
2026-05-07 07:34 55.10361 37.88861 21507 ft 408 kts 320°
2026-05-07 07:34 55.12602 37.85889 20985 ft 404 kts 320°
2026-05-07 07:34 55.14852 37.82899 20684 ft 393 kts 320°
2026-05-07 07:34 55.16981 37.80070 20628 ft 378 kts 320°
2026-05-07 07:35 55.19055 37.77309 20518 ft 365 kts 320°
2026-05-07 07:35 55.21056 37.74641 20381 ft 353 kts 319°
2026-05-07 07:35 55.22985 37.72063 20241 ft 343 kts 319°
2026-05-07 07:35 55.24852 37.69565 20098 ft 332 kts 319°
2026-05-07 07:36 55.26658 37.67197 19950 ft 324 kts 324°
2026-05-07 07:36 55.28725 37.65587 19783 ft 322 kts 338°
2026-05-07 07:36 55.30954 37.64457 19440 ft 337 kts 341°
2026-05-07 07:36 55.33208 37.63405 19071 ft 336 kts 341°
2026-05-07 07:37 55.35472 37.62360 18749 ft 332 kts 341°
2026-05-07 07:37 55.37684 37.61334 18434 ft 329 kts 341°
2026-05-07 07:37 55.39910 37.60297 18123 ft 327 kts 341°
2026-05-07 07:37 55.42099 37.59274 17817 ft 326 kts 341°
2026-05-07 07:38 55.44276 37.58257 17512 ft 325 kts 341°
2026-05-07 07:38 55.46406 37.57259 17211 ft 323 kts 341°
2026-05-07 07:38 55.48422 37.56314 16923 ft 321 kts 340°
2026-05-07 07:38 55.50726 37.55233 16595 ft 320 kts 340°
2026-05-07 07:39 55.52599 37.54353 16330 ft 319 kts 340°
2026-05-07 07:39 55.54734 37.53348 16027 ft 317 kts 340°
2026-05-07 07:39 55.56866 37.52345 15725 ft 316 kts 340°
2026-05-07 07:39 55.58960 37.51358 15425 ft 315 kts 340°
2026-05-07 07:40 55.61071 37.50362 15130 ft 313 kts 340°
2026-05-07 07:40 55.63175 37.49368 14827 ft 311 kts 340°
2026-05-07 07:40 55.65274 37.48375 14525 ft 310 kts 340°
2026-05-07 07:40 55.67330 37.47401 14231 ft 308 kts 340°
2026-05-07 07:41 55.69426 37.46408 13945 ft 307 kts 340°
2026-05-07 07:41 55.71462 37.45442 13716 ft 306 kts 339°
2026-05-07 07:41 55.73538 37.44455 13446 ft 306 kts 339°
2026-05-07 07:41 55.75573 37.43487 13161 ft 305 kts 339°
2026-05-07 07:42 55.77644 37.42502 12868 ft 303 kts 340°
2026-05-07 07:42 55.79655 37.41544 12583 ft 301 kts 339°
2026-05-07 07:42 55.81683 37.40576 12295 ft 300 kts 339°
2026-05-07 07:42 55.83693 37.39615 12009 ft 300 kts 339°
2026-05-07 07:43 55.85693 37.38660 11724 ft 298 kts 339°
2026-05-07 07:43 55.87686 37.37706 11442 ft 295 kts 339°
2026-05-07 07:43 55.89684 37.36750 11161 ft 292 kts 339°
2026-05-07 07:43 55.91635 37.35814 10885 ft 289 kts 339°
2026-05-07 07:44 55.93572 37.34884 10612 ft 286 kts 338°
2026-05-07 07:44 55.95462 37.33975 10350 ft 284 kts 338°
2026-05-07 07:44 55.97373 37.33087 10076 ft 283 kts 343°
2026-05-07 07:44 55.99354 37.32852 9786 ft 288 kts 354°
2026-05-07 07:45 56.01373 37.32951 9428 ft 290 kts 356°
2026-05-07 07:45 56.03393 37.33081 9070 ft 291 kts 356°
2026-05-07 07:45 56.05423 37.33201 8724 ft 292 kts 355°
2026-05-07 07:45 56.07454 37.33314 8384 ft 293 kts 355°
2026-05-07 07:46 56.09508 37.33425 8042 ft 294 kts 355°
2026-05-07 07:46 56.11575 37.33537 7680 ft 295 kts 355°
2026-05-07 07:46 56.13660 37.34011 7308 ft 303 kts 14°
2026-05-07 07:46 56.15473 37.35956 7016 ft 307 kts 42°
2026-05-07 07:47 56.16645 37.39078 7008 ft 296 kts 67°
2026-05-07 07:47 56.17301 37.42533 6958 ft 285 kts 73°
2026-05-07 07:47 56.17851 37.46037 6333 ft 300 kts 75°
2026-05-07 07:47 56.18396 37.49676 5779 ft 310 kts 75°
2026-05-07 07:48 56.18948 37.53411 5410 ft 311 kts 78°
2026-05-07 07:48 56.19030 37.57238 5078 ft 304 kts 103°
2026-05-07 07:48 56.18257 37.60664 4835 ft 291 kts 127°
2026-05-07 07:48 56.17052 37.63459 4735 ft 278 kts 135°
2026-05-07 07:49 56.15785 37.65955 4625 ft 269 kts 139°
2026-05-07 07:49 56.14500 37.68356 4502 ft 262 kts 139°
2026-05-07 07:49 56.13240 37.70674 4369 ft 255 kts 140°
2026-05-07 07:49 56.12012 37.72922 4241 ft 248 kts 140°
2026-05-07 07:50 56.10817 37.75093 4127 ft 240 kts 143°
2026-05-07 07:50 56.09449 37.76530 4005 ft 221 kts 171°
2026-05-07 07:50 56.07963 37.76713 3886 ft 208 kts 192°
2026-05-07 07:50 56.06561 37.76203 3772 ft 203 kts 200°
2026-05-07 07:51 56.05261 37.75515 3657 ft 193 kts 202°
2026-05-07 07:51 56.04063 37.74834 3543 ft 186 kts 202°
2026-05-07 07:51 56.02834 37.74078 3427 ft 184 kts 210°
2026-05-07 07:51 56.01841 37.72719 3310 ft 181 kts 237°
2026-05-07 07:52 56.01418 37.70688 3198 ft 171 kts 255°
2026-05-07 07:52 56.01154 37.68655 3102 ft 161 kts 255°
2026-05-07 07:52 56.00884 37.66756 3016 ft 158 kts 254°
2026-05-07 07:52 56.00602 37.64841 2928 ft 160 kts 253°
2026-05-07 07:53 56.00319 37.62918 2788 ft 160 kts 253°
2026-05-07 07:53 56.00040 37.61024 2563 ft 158 kts 253°
2026-05-07 07:53 55.99768 37.59174 2351 ft 147 kts 252°
2026-05-07 07:53 55.99510 37.57444 2156 ft 138 kts 253°
2026-05-07 07:54 55.99277 37.55855 1988 ft 134 kts 252°
2026-05-07 07:54 55.99034 37.54227 1797 ft 134 kts 252°
2026-05-07 07:54 55.98797 37.52619 1613 ft 135 kts 252°
2026-05-07 07:54 55.98555 37.50969 1427 ft 136 kts 251°
2026-05-07 07:55 55.98301 37.49340 1220 ft 137 kts 252°
2026-05-07 07:55 55.98092 37.47691 1050 ft 131 kts 252°
2026-05-07 07:55 55.97850 37.46136 876 ft 130 kts 251°
2026-05-07 07:55 55.97605 37.44557 711 ft 136 kts 253°
2026-05-07 07:56 55.97371 37.43002 643 ft 115 kts 252°
2026-05-07 07:56 55.97192 37.41832 643 ft 79 kts 255°
2026-05-07 07:56 55.97080 37.41093 643 ft 45 kts 256°
2026-05-07 07:56 55.97013 37.40625 643 ft 39 kts 256°
2026-05-07 07:57 55.96945 37.40180 643 ft 27 kts 261°
2026-05-07 07:57 55.97079 37.40002 643 ft 26 kts 346°
2026-05-07 07:57 55.97257 37.39917 643 ft 20 kts 345°
2026-05-07 07:57 55.97325 37.39800 643 ft 15 kts 261°
2026-05-07 07:58 55.97296 37.39607 643 ft 16 kts 254°
2026-05-07 07:58 55.97268 37.39401 643 ft 17 kts 255°
2026-05-07 07:58 55.97237 37.39200 643 ft 12 kts 261°
2026-05-07 07:58 55.97295 37.39114 643 ft 12 kts
2026-05-07 07:59 55.97343 37.39240 643 ft 11 kts 74°
2026-05-07 07:59 55.97365 37.39373 643 ft 8 kts 64°
2026-05-07 07:59 55.97379 37.39400 643 ft 9 kts 35°
2026-05-07 07:59 55.97424 37.39411 643 ft 3 kts 354°
2026-05-07 08:00 55.97442 37.39404 643 ft 0 kts 346°